Time,TemperatureF,DewpointF,PressureIn,WindDirection,WindDirectionDegrees,WindSpeedMPH,WindSpeedGustMPH,Humidity,HourlyPrecipIn,Conditions,Clouds,dailyrainin,SolarRadiationWatts/m^2,SoftwareType,DateUTC
2013-03-06 00:00:00,32.8,29.9,29.73,SW,236,4.0,6.0,89,0.08,,---,1.28,0.00,VWS V14.01,2013-03-06 05:00:00,
2013-03-06 00:01:00,32.7,29.8,29.73,SW,236,10.0,15.0,89,0.08,,---,0.00,0.00,VWS V14.01,2013-03-06 05:01:00,
2013-03-06 00:02:00,32.8,29.9,29.73,SW,236,4.0,10.0,89,0.08,,---,1.28,0.00,VWS V14.01,2013-03-06 05:02:00,
2013-03-06 00:03:00,32.7,29.8,29.73,WSW,237,3.0,17.0,89,0.08,,---,0.00,0.00,VWS V14.01,2013-03-06 05:03:00,
2013-03-06 00:04:00,32.7,29.8,29.73,WSW,237,9.0,17.0,89,0.08,,---,0.00,0.00,VWS V14.01,2013-03-06 05:04:00,
2013-03-06 00:05:00,32.7,29.8,29.73,SW,236,4.0,13.0,89,0.08,,---,1.28,0.00,VWS V14.01,2013-03-06 05:05:00,
2013-03-06 00:06:00,32.7,29.8,29.73,WSW,237,20.0,20.0,89,0.08,,---,0.00,0.00,VWS V14.01,2013-03-06 05:06:00,
2013-03-06 00:07:00,32.6,29.7,29.73,WSW,237,7.0,20.0,89,0.08,,---,0.00,0.00,VWS V14.01,2013-03-06 05:07:00,
2013-03-06 00:08:00,32.6,29.7,29.73,WSW,237,5.0,20.0,89,0.09,,---,0.01,0.00,VWS V14.01,2013-03-06 05:08:00,
2013-03-06 00:09:00,32.6,29.7,29.73,WSW,237,3.0,20.0,89,0.09,,---,0.01,0.00,VWS V14.01,2013-03-06 05:09:00,
2013-03-06 00:10:00,32.7,29.8,29.73,SW,236,13.0,15.0,89,0.08,,---,0.00,0.00,VWS V14.01,2013-03-06 05:10:00,
2013-03-06 00:11:00,32.6,29.7,29.72,WSW,237,2.0,15.0,89,0.07,,---,0.01,0.00,VWS V14.01,2013-03-06 05:11:00,
2013-03-06 00:12:00,32.6,29.7,29.72,WSW,237,9.0,15.0,89,0.07,,---,0.01,0.00,VWS V14.01,2013-03-06 05:12:00,
2013-03-06 00:13:00,32.6,29.7,29.72,WSW,237,12.0,15.0,89,0.07,,---,0.01,0.00,VWS V14.01,2013-03-06 05:13:00,
2013-03-06 00:14:00,32.6,30.0,29.73,WSW,237,11.0,15.0,90,0.07,,---,0.01,0.00,VWS V14.01,2013-03-06 05:14:00,
2013-03-06 00:15:00,32.6,29.7,29.73,WSW,237,12.0,19.0,89,0.08,,---,0.00,0.00,VWS V14.01,2013-03-06 05:15:00,
2013-03-06 00:16:00,32.5,29.9,29.72,WSW,237,6.0,20.0,90,0.07,,---,0.01,0.00,VWS V14.01,2013-03-06 05:16:00,
2013-03-06 00:17:00,32.5,29.9,29.72,WSW,237,3.0,20.0,90,0.07,,---,0.01,0.00,VWS V14.01,2013-03-06 05:17:00,
2013-03-06 00:18:00,32.5,29.6,29.72,WSW,237,16.0,20.0,89,0.08,,---,0.02,0.00,VWS V14.01,2013-03-06 05:18:00,
2013-03-06 00:19:00,32.5,29.6,29.72,WSW,237,10.0,20.0,89,0.08,,---,0.02,0.00,VWS V14.01,2013-03-06 05:19:00,
2013-03-06 00:20:00,32.5,29.6,29.72,WSW,237,10.0,15.0,89,0.07,,---,0.02,0.00,VWS V14.01,2013-03-06 05:20:00,
2013-03-06 00:21:00,32.6,29.7,29.72,WSW,237,3.0,15.0,89,0.07,,---,0.01,0.00,VWS V14.01,2013-03-06 05:21:00,
2013-03-06 00:22:00,32.5,29.9,29.72,WSW,237,6.0,15.0,90,0.07,,---,0.02,0.00,VWS V14.01,2013-03-06 05:22:00,
2013-03-06 00:23:00,32.5,29.9,29.72,WSW,237,12.0,19.0,90,0.07,,---,0.02,0.00,VWS V14.01,2013-03-06 05:23:00,
2013-03-06 00:24:00,32.5,29.9,29.72,WSW,237,11.0,19.0,90,0.07,,---,0.02,0.00,VWS V14.01,2013-03-06 05:24:00,
2013-03-06 00:25:00,32.5,29.6,29.73,WSW,237,12.0,20.0,89,0.07,,---,0.02,0.00,VWS V14.01,2013-03-06 05:25:00,
2013-03-06 00:26:00,32.5,29.9,29.72,WSW,237,7.0,20.0,90,0.07,,---,0.01,0.00,VWS V14.01,2013-03-06 05:26:00,
2013-03-06 00:27:00,32.5,29.6,29.73,WSW,237,9.0,20.0,89,0.07,,---,0.02,0.00,VWS V14.01,2013-03-06 05:27:00,
2013-03-06 00:28:00,32.5,29.6,29.72,WSW,237,7.0,20.0,89,0.07,,---,0.02,0.00,VWS V14.01,2013-03-06 05:28:00,
2013-03-06 00:29:00,32.5,29.6,29.73,WSW,237,12.0,20.0,89,0.07,,---,0.02,0.00,VWS V14.01,2013-03-06 05:29:00,
2013-03-06 00:30:00,32.5,29.6,29.73,WSW,237,5.0,14.0,89,0.06,,---,0.02,0.00,VWS V14.01,2013-03-06 05:30:00,
2013-03-06 00:31:00,32.5,29.9,29.72,WSW,237,5.0,15.0,90,0.07,,---,0.02,0.00,VWS V14.01,2013-03-06 05:31:00,
2013-03-06 00:32:00,32.5,29.6,29.72,WSW,237,6.0,17.0,89,0.07,,---,0.03,0.00,VWS V14.01,2013-03-06 05:32:00,
2013-03-06 00:33:00,32.4,29.5,29.72,SW,236,7.0,17.0,89,0.07,,---,0.03,0.00,VWS V14.01,2013-03-06 05:33:00,
2013-03-06 00:34:00,32.5,29.6,29.73,WSW,237,22.0,22.0,89,0.07,,---,0.03,0.00,VWS V14.01,2013-03-06 05:34:00,
2013-03-06 00:35:00,32.5,29.6,29.73,WSW,237,9.0,22.0,89,0.07,,---,0.03,0.00,VWS V14.01,2013-03-06 05:35:00,
2013-03-06 00:36:00,32.5,29.6,29.73,WSW,237,17.0,20.0,89,0.07,,---,0.02,0.00,VWS V14.01,2013-03-06 05:36:00,
2013-03-06 00:37:00,32.4,29.5,29.73,WSW,237,6.0,22.0,89,0.07,,---,0.03,0.00,VWS V14.01,2013-03-06 05:37:00,
2013-03-06 00:38:00,32.4,29.8,29.73,WSW,237,11.0,22.0,90,0.07,,---,0.03,0.00,VWS V14.01,2013-03-06 05:38:00,
2013-03-06 00:39:00,32.3,29.7,29.72,WSW,237,10.0,22.0,90,0.07,,---,0.03,0.00,VWS V14.01,2013-03-06 05:39:00,
2013-03-06 00:40:00,32.3,29.7,29.72,WSW,248,6.0,13.0,90,0.05,,---,0.03,0.00,VWS V14.01,2013-03-06 05:40:00,
2013-03-06 00:41:00,32.2,29.6,29.73,WSW,242,5.0,13.0,90,0.05,,---,0.03,0.00,VWS V14.01,2013-03-06 05:41:00,
2013-03-06 00:42:00,32.5,29.6,29.72,WSW,237,11.0,17.0,89,0.07,,---,0.03,0.00,VWS V14.01,2013-03-06 05:42:00,
2013-03-06 00:43:00,32.2,29.6,29.73,WSW,242,4.0,14.0,90,0.05,,---,0.03,0.00,VWS V14.01,2013-03-06 05:43:00,
2013-03-06 00:44:00,32.2,29.6,29.72,WSW,239,12.0,15.0,90,0.05,,---,0.03,0.00,VWS V14.01,2013-03-06 05:44:00,
2013-03-06 00:45:00,32.1,29.5,29.73,WSW,239,2.0,15.0,90,0.05,,---,0.03,0.00,VWS V14.01,2013-03-06 05:45:00,
2013-03-06 00:46:00,32.1,29.5,29.72,WSW,239,6.0,15.0,90,0.05,,---,0.03,0.00,VWS V14.01,2013-03-06 05:46:00,
2013-03-06 00:47:00,32.4,29.5,29.73,WSW,237,13.0,22.0,89,0.07,,---,0.03,0.00,VWS V14.01,2013-03-06 05:47:00,
2013-03-06 00:48:00,32.0,29.7,29.72,WSW,239,4.0,15.0,91,0.05,,---,0.03,0.00,VWS V14.01,2013-03-06 05:48:00,
2013-03-06 00:49:00,32.0,29.7,29.72,WSW,239,9.0,15.0,91,0.05,,---,0.03,0.00,VWS V14.01,2013-03-06 05:49:00,
2013-03-06 00:50:00,32.0,29.7,29.73,WSW,239,6.0,7.0,91,0.04,,---,0.03,0.00,VWS V14.01,2013-03-06 05:50:00,
2013-03-06 00:51:00,32.0,29.7,29.73,WSW,239,2.0,9.0,91,0.04,,---,0.03,0.00,VWS V14.01,2013-03-06 05:51:00,
2013-03-06 00:52:00,32.0,29.7,29.73,WSW,239,11.0,14.0,91,0.04,,---,0.03,0.00,VWS V14.01,2013-03-06 05:52:00,
2013-03-06 00:53:00,32.2,29.6,29.73,WSW,242,10.0,14.0,90,0.05,,---,0.03,0.00,VWS V14.01,2013-03-06 05:53:00,
2013-03-06 00:54:00,32.0,29.7,29.73,WSW,239,5.0,14.0,91,0.05,,---,0.04,0.00,VWS V14.01,2013-03-06 05:54:00,
2013-03-06 00:55:00,32.0,29.7,29.73,WSW,239,7.0,14.0,91,0.05,,---,0.04,0.00,VWS V14.01,2013-03-06 05:55:00,
2013-03-06 00:56:00,32.0,29.4,29.73,WSW,239,3.0,14.0,90,0.05,,---,0.04,0.00,VWS V14.01,2013-03-06 05:56:00,
2013-03-06 00:57:00,32.0,29.4,29.73,WSW,239,12.0,14.0,90,0.05,,---,0.04,0.00,VWS V14.01,2013-03-06 05:57:00,
2013-03-06 00:58:00,32.0,29.7,29.72,WSW,239,3.0,15.0,91,0.05,,---,0.03,0.00,VWS V14.01,2013-03-06 05:58:00,
2013-03-06 00:59:00,32.0,29.1,29.73,SW,224,4.0,19.0,89,0.05,,---,0.04,0.00,VWS V14.01,2013-03-06 05:59:00,
2013-03-06 01:00:00,32.0,29.1,29.73,SW,224,9.0,12.0,89,0.04,,---,0.04,0.00,VWS V14.01,2013-03-06 06:00:00,
2013-03-06 01:01:00,32.0,29.1,29.73,SW,224,6.0,13.0,89,0.04,,---,0.04,0.00,VWS V14.01,2013-03-06 06:01:00,
2013-03-06 01:02:00,31.9,28.8,29.73,SW,224,11.0,13.0,88,0.04,,---,0.04,0.00,VWS V14.01,2013-03-06 06:02:00,
2013-03-06 01:03:00,32.0,29.7,29.73,WSW,239,4.0,14.0,91,0.05,,---,0.04,0.00,VWS V14.01,2013-03-06 06:03:00,
2013-03-06 01:04:00,32.0,28.9,29.73,SW,224,12.0,14.0,88,0.04,,---,0.04,0.00,VWS V14.01,2013-03-06 06:04:00,
2013-03-06 01:05:00,31.9,28.8,29.73,SW,224,4.0,14.0,88,0.04,,---,0.04,0.00,VWS V14.01,2013-03-06 06:05:00,
2013-03-06 01:06:00,31.9,28.5,29.73,SW,224,13.0,14.0,87,0.04,,---,0.04,0.00,VWS V14.01,2013-03-06 06:06:00,
2013-03-06 01:07:00,31.9,28.5,29.73,SW,224,9.0,14.0,87,0.04,,---,0.04,0.00,VWS V14.01,2013-03-06 06:07:00,
2013-03-06 01:08:00,31.9,29.0,29.73,SW,224,5.0,19.0,89,0.05,,---,0.04,0.00,VWS V14.01,2013-03-06 06:08:00,
2013-03-06 01:09:00,31.9,28.5,29.73,SW,224,13.0,14.0,87,0.04,,---,0.04,0.00,VWS V14.01,2013-03-06 06:09:00,
2013-03-06 01:10:00,31.9,28.5,29.73,SW,224,5.0,9.0,87,0.03,,---,0.04,0.00,VWS V14.01,2013-03-06 06:10:00,
2013-03-06 01:11:00,31.9,28.5,29.73,SW,224,10.0,11.0,87,0.03,,---,0.04,0.00,VWS V14.01,2013-03-06 06:11:00,
2013-03-06 01:12:00,31.8,28.4,29.73,SW,224,6.0,12.0,87,0.03,,---,0.04,0.00,VWS V14.01,2013-03-06 06:12:00,
2013-03-06 01:13:00,31.8,28.4,29.73,SW,224,10.0,14.0,87,0.03,,---,0.04,0.00,VWS V14.01,2013-03-06 06:13:00,
2013-03-06 01:14:00,31.9,28.8,29.73,SW,224,3.0,14.0,88,0.04,,---,0.04,0.00,VWS V14.01,2013-03-06 06:14:00,
2013-03-06 01:15:00,31.8,28.1,29.73,SW,224,15.0,18.0,86,0.03,,---,0.04,0.00,VWS V14.01,2013-03-06 06:15:00,
2013-03-06 01:16:00,31.8,28.1,29.73,SW,235,23.0,26.0,86,0.03,,---,0.04,0.00,VWS V14.01,2013-03-06 06:16:00,
2013-03-06 01:17:00,31.8,28.1,29.73,WSW,237,5.0,26.0,86,0.03,,---,0.04,0.00,VWS V14.01,2013-03-06 06:17:00,
2013-03-06 01:18:00,31.8,28.1,29.73,WSW,248,6.0,26.0,86,0.03,,---,0.04,0.00,VWS V14.01,2013-03-06 06:18:00,
2013-03-06 01:19:00,31.9,28.5,29.73,SW,224,7.0,14.0,87,0.04,,---,0.04,0.00,VWS V14.01,2013-03-06 06:19:00,
2013-03-06 01:20:00,31.8,27.8,29.73,WSW,255,7.0,10.0,85,0.02,,---,0.04,0.00,VWS V14.01,2013-03-06 06:20:00,
2013-03-06 01:21:00,31.8,27.8,29.73,West,277,8.0,13.0,85,0.02,,---,0.04,0.00,VWS V14.01,2013-03-06 06:21:00,
2013-03-06 01:22:00,31.8,27.8,29.73,SW,234,12.0,22.0,85,0.02,,---,0.04,0.00,VWS V14.01,2013-03-06 06:22:00,
2013-03-06 01:23:00,31.8,27.8,29.73,SW,229,3.0,22.0,85,0.02,,---,0.04,0.00,VWS V14.01,2013-03-06 06:23:00,
2013-03-06 01:24:00,31.8,28.4,29.73,SW,224,12.0,16.0,87,0.03,,---,0.04,0.00,VWS V14.01,2013-03-06 06:24:00,
2013-03-06 01:25:00,31.7,27.7,29.73,SW,229,9.0,22.0,85,0.02,,---,0.04,0.00,VWS V14.01,2013-03-06 06:25:00,
2013-03-06 01:26:00,31.7,27.7,29.73,SW,232,6.0,22.0,85,0.02,,---,0.04,0.00,VWS V14.01,2013-03-06 06:26:00,
2013-03-06 01:27:00,31.7,27.4,29.73,West,262,8.0,25.0,84,0.03,,---,0.05,0.00,VWS V14.01,2013-03-06 06:27:00,
2013-03-06 01:28:00,31.7,27.1,29.74,WSW,237,7.0,25.0,83,0.03,,---,0.05,0.00,VWS V14.01,2013-03-06 06:28:00,
2013-03-06 01:29:00,31.8,27.8,29.73,WSW,256,6.0,10.0,85,0.02,,---,0.04,0.00,VWS V14.01,2013-03-06 06:29:00,
2013-03-06 01:30:00,31.6,27.3,29.73,SW,233,13.0,16.0,84,0.03,,---,0.05,0.00,VWS V14.01,2013-03-06 06:30:00,
2013-03-06 01:31:00,31.6,27.3,29.74,SW,225,16.0,18.0,84,0.03,,---,0.05,0.00,VWS V14.01,2013-03-06 06:31:00,
2013-03-06 01:32:00,31.5,27.2,29.74,SW,225,11.0,18.0,84,0.03,,---,0.05,0.00,VWS V14.01,2013-03-06 06:32:00,
2013-03-06 01:33:00,31.5,27.2,29.74,WNW,302,3.0,18.0,84,0.03,,---,0.05,0.00,VWS V14.01,2013-03-06 06:33:00,
2013-03-06 01:34:00,31.8,27.8,29.73,SW,229,12.0,22.0,85,0.02,,---,0.04,0.00,VWS V14.01,2013-03-06 06:34:00,
2013-03-06 01:35:00,31.4,27.1,29.73,WSW,241,16.0,21.0,84,0.03,,---,0.05,0.00,VWS V14.01,2013-03-06 06:35:00,
2013-03-06 01:36:00,31.4,26.8,29.74,SW,224,29.0,29.0,83,0.03,,---,0.05,0.00,VWS V14.01,2013-03-06 06:36:00,
2013-03-06 01:37:00,31.4,26.8,29.73,WSW,254,12.0,29.0,83,0.03,,---,0.05,0.00,VWS V14.01,2013-03-06 06:37:00,
2013-03-06 01:38:00,31.3,26.8,29.73,SW,227,9.0,29.0,83,0.03,,---,0.05,0.00,VWS V14.01,2013-03-06 06:38:00,
2013-03-06 01:39:00,31.3,26.8,29.73,WSW,252,10.0,29.0,83,0.03,,---,0.05,0.00,VWS V14.01,2013-03-06 06:39:00,
2013-03-06 01:40:00,31.6,27.3,29.73,SW,225,7.0,18.0,84,0.03,,---,0.05,0.00,VWS V14.01,2013-03-06 06:40:00,
2013-03-06 01:41:00,31.2,26.4,29.73,SW,226,15.0,21.0,82,0.02,,---,0.05,0.00,VWS V14.01,2013-03-06 06:41:00,
2013-03-06 01:42:00,31.2,26.1,29.73,West,271,3.0,26.0,81,0.02,,---,0.05,0.00,VWS V14.01,2013-03-06 06:42:00,
2013-03-06 01:43:00,31.2,26.1,29.73,WSW,240,1.0,26.0,81,0.02,,---,0.05,0.00,VWS V14.01,2013-03-06 06:43:00,
2013-03-06 01:44:00,31.2,26.1,29.73,SW,231,4.0,26.0,81,0.02,,---,0.05,0.00,VWS V14.01,2013-03-06 06:44:00,
2013-03-06 01:45:00,31.4,26.8,29.74,West,260,10.0,21.0,83,0.03,,---,0.05,0.00,VWS V14.01,2013-03-06 06:45:00,
2013-03-06 01:46:00,31.1,26.0,29.73,WSW,238,15.0,26.0,81,0.02,,---,0.05,0.00,VWS V14.01,2013-03-06 06:46:00,
2013-03-06 01:47:00,31.1,26.0,29.74,WSW,242,9.0,26.0,81,0.02,,---,0.05,0.00,VWS V14.01,2013-03-06 06:47:00,
2013-03-06 01:48:00,31.1,26.0,29.74,West,259,6.0,26.0,81,0.02,,---,0.05,0.00,VWS V14.01,2013-03-06 06:48:00,
2013-03-06 01:49:00,31.0,25.6,29.73,SW,225,7.0,26.0,80,0.02,,---,0.05,0.00,VWS V14.01,2013-03-06 06:49:00,
2013-03-06 01:50:00,31.3,26.5,29.73,SW,231,14.0,21.0,82,0.02,,---,0.05,0.00,VWS V14.01,2013-03-06 06:50:00,
2013-03-06 01:51:00,31.0,25.6,29.74,SW,232,9.0,22.0,80,0.02,,---,0.05,0.00,VWS V14.01,2013-03-06 06:51:00,
2013-03-06 01:52:00,30.9,25.5,29.73,WSW,254,9.0,22.0,80,0.02,,---,0.05,0.00,VWS V14.01,2013-03-06 06:52:00,
2013-03-06 01:53:00,30.9,25.2,29.73,WSW,244,20.0,27.0,79,0.02,,---,0.05,0.00,VWS V14.01,2013-03-06 06:53:00,
2013-03-06 01:54:00,30.9,25.2,29.73,WSW,239,16.0,27.0,79,0.02,,---,0.05,0.00,VWS V14.01,2013-03-06 06:54:00,
2013-03-06 01:55:00,31.1,26.0,29.73,SW,236,12.0,26.0,81,0.02,,---,0.05,0.00,VWS V14.01,2013-03-06 06:55:00,
2013-03-06 01:56:00,30.8,25.1,29.73,West,259,2.0,27.0,79,0.02,,---,0.05,0.00,VWS V14.01,2013-03-06 06:56:00,
2013-03-06 01:57:00,30.8,25.1,29.73,WSW,251,7.0,27.0,79,0.02,,---,0.05,0.00,VWS V14.01,2013-03-06 06:57:00,
2013-03-06 01:58:00,30.8,24.8,29.73,WSW,239,4.0,27.0,78,0.02,,---,0.05,0.00,VWS V14.01,2013-03-06 06:58:00,
2013-03-06 01:59:00,30.7,24.7,29.73,SW,225,11.0,27.0,78,0.02,,---,0.05,0.00,VWS V14.01,2013-03-06 06:59:00,
2013-03-06 02:00:00,30.7,25.0,29.73,WSW,252,6.0,16.0,79,0.01,,---,0.05,0.00,VWS V14.01,2013-03-06 07:00:00,
2013-03-06 02:01:00,31.0,25.6,29.74,WSW,237,13.0,22.0,80,0.02,,---,0.05,0.00,VWS V14.01,2013-03-06 07:01:00,
2013-03-06 02:02:00,30.7,25.0,29.73,SW,223,10.0,17.0,79,0.01,,---,0.05,0.00,VWS V14.01,2013-03-06 07:02:00,
2013-03-06 02:03:00,30.7,25.0,29.73,SW,227,5.0,19.0,79,0.01,,---,0.05,0.00,VWS V14.01,2013-03-06 07:03:00,
2013-03-06 02:04:00,30.7,25.0,29.73,SW,227,6.0,19.0,79,0.01,,---,0.05,0.00,VWS V14.01,2013-03-06 07:04:00,
2013-03-06 02:05:00,30.7,25.0,29.73,SW,227,9.0,19.0,79,0.01,,---,0.05,0.00,VWS V14.01,2013-03-06 07:05:00,
2013-03-06 02:06:00,30.8,25.1,29.73,SW,232,19.0,27.0,79,0.02,,---,0.05,0.00,VWS V14.01,2013-03-06 07:06:00,
2013-03-06 02:07:00,30.6,25.2,29.73,SW,229,3.0,19.0,80,0.01,,---,0.05,0.00,VWS V14.01,2013-03-06 07:07:00,
2013-03-06 02:08:00,30.6,24.9,29.73,SW,229,2.0,19.0,79,0.01,,---,0.05,0.00,VWS V14.01,2013-03-06 07:08:00,
2013-03-06 02:09:00,30.6,24.9,29.73,SW,229,10.0,19.0,79,0.01,,---,0.05,0.00,VWS V14.01,2013-03-06 07:09:00,
2013-03-06 02:10:00,30.6,25.2,29.73,West,263,10.0,14.0,80,0.01,,---,0.05,0.00,VWS V14.01,2013-03-06 07:10:00,
2013-03-06 02:11:00,30.7,25.0,29.73,SW,223,13.0,17.0,79,0.01,,---,0.05,0.00,VWS V14.01,2013-03-06 07:11:00,
2013-03-06 02:12:00,30.5,24.8,29.73,SW,236,5.0,14.0,79,0.01,,---,0.05,0.00,VWS V14.01,2013-03-06 07:12:00,
2013-03-06 02:13:00,30.5,25.1,29.73,SW,236,15.0,17.0,80,0.01,,---,0.05,0.00,VWS V14.01,2013-03-06 07:13:00,
2013-03-06 02:14:00,30.5,24.8,29.73,SW,225,16.0,18.0,79,0.01,,---,0.05,0.00,VWS V14.01,2013-03-06 07:14:00,
2013-03-06 02:15:00,30.5,24.8,29.73,SW,235,6.0,18.0,79,0.01,,---,0.05,0.00,VWS V14.01,2013-03-06 07:15:00,
2013-03-06 02:16:00,30.6,25.2,29.73,SW,229,6.0,19.0,80,0.01,,---,0.05,0.00,VWS V14.01,2013-03-06 07:16:00,
2013-03-06 02:17:00,30.5,24.5,29.73,SW,229,9.0,18.0,78,0.01,,---,0.05,0.00,VWS V14.01,2013-03-06 07:17:00,
2013-03-06 02:18:00,30.5,24.5,29.73,SW,232,6.0,18.0,78,0.01,,---,0.05,0.00,VWS V14.01,2013-03-06 07:18:00,
2013-03-06 02:19:00,30.5,24.8,29.73,SW,232,9.0,18.0,79,0.01,,---,0.05,0.00,VWS V14.01,2013-03-06 07:19:00,
2013-03-06 02:20:00,30.5,24.8,29.72,SW,223,2.0,17.0,79,0.01,,---,0.05,0.00,VWS V14.01,2013-03-06 07:20:00,
2013-03-06 02:21:00,30.5,24.8,29.73,SW,223,10.0,17.0,79,0.01,,---,0.05,0.00,VWS V14.01,2013-03-06 07:21:00,
2013-03-06 02:22:00,30.5,24.8,29.73,West,260,14.0,16.0,79,0.01,,---,0.05,0.00,VWS V14.01,2013-03-06 07:22:00,
2013-03-06 02:23:00,30.4,24.7,29.73,SW,230,4.0,17.0,79,0.01,,---,0.05,0.00,VWS V14.01,2013-03-06 07:23:00,
2013-03-06 02:24:00,30.4,24.7,29.73,SW,230,2.0,17.0,79,0.01,,---,0.05,0.00,VWS V14.01,2013-03-06 07:24:00,
2013-03-06 02:25:00,30.4,24.7,29.73,SW,230,4.0,17.0,79,0.01,,---,0.05,0.00,VWS V14.01,2013-03-06 07:25:00,
2013-03-06 02:26:00,30.4,24.7,29.73,WSW,254,6.0,17.0,79,0.01,,---,0.05,0.00,VWS V14.01,2013-03-06 07:26:00,
2013-03-06 02:27:00,30.5,24.5,29.73,SW,232,11.0,18.0,78,0.01,,---,0.05,0.00,VWS V14.01,2013-03-06 07:27:00,
2013-03-06 02:28:00,30.4,24.7,29.73,SW,227,19.0,22.0,79,0.01,,---,0.05,0.00,VWS V14.01,2013-03-06 07:28:00,
2013-03-06 02:29:00,30.4,24.7,29.72,SW,230,5.0,22.0,79,0.01,,---,0.05,0.00,VWS V14.01,2013-03-06 07:29:00,
2013-03-06 02:30:00,30.4,24.7,29.72,SW,215,10.0,16.0,79,0.00,,---,0.05,0.00,VWS V14.01,2013-03-06 07:30:00,
2013-03-06 02:31:00,30.4,24.4,29.73,SW,215,4.0,16.0,78,0.00,,---,0.05,0.00,VWS V14.01,2013-03-06 07:31:00,
2013-03-06 02:32:00,30.5,24.8,29.73,SW,230,14.0,17.0,79,0.01,,---,0.05,0.00,VWS V14.01,2013-03-06 07:32:00,
2013-03-06 02:33:00,30.4,24.7,29.72,WSW,253,2.0,18.0,79,0.00,,---,0.05,0.00,VWS V14.01,2013-03-06 07:33:00,
2013-03-06 02:34:00,30.4,24.7,29.73,West,265,4.0,18.0,79,0.00,,---,0.05,0.00,VWS V14.01,2013-03-06 07:34:00,
2013-03-06 02:35:00,30.3,24.6,29.72,SW,232,13.0,18.0,79,0.00,,---,0.05,0.00,VWS V14.01,2013-03-06 07:35:00,
2013-03-06 02:36:00,30.3,24.6,29.72,WSW,252,16.0,23.0,79,0.00,,---,0.05,0.00,VWS V14.01,2013-03-06 07:36:00,
2013-03-06 02:37:00,30.4,24.7,29.73,SW,228,13.0,22.0,79,0.01,,---,0.05,0.00,VWS V14.01,2013-03-06 07:37:00,
2013-03-06 02:38:00,30.3,24.3,29.72,West,259,7.0,23.0,78,0.00,,---,0.05,0.00,VWS V14.01,2013-03-06 07:38:00,
2013-03-06 02:39:00,30.3,24.3,29.73,SW,234,14.0,23.0,78,0.00,,---,0.05,0.00,VWS V14.01,2013-03-06 07:39:00,
2013-03-06 02:40:00,30.3,24.3,29.73,WSW,257,4.0,6.0,78,0.00,,---,0.05,0.00,VWS V14.01,2013-03-06 07:40:00,
2013-03-06 02:41:00,30.3,24.3,29.73,SW,227,7.0,17.0,78,0.00,,---,0.05,0.00,VWS V14.01,2013-03-06 07:41:00,
2013-03-06 02:42:00,30.3,24.3,29.73,SW,227,3.0,17.0,78,0.00,,---,0.05,0.00,VWS V14.01,2013-03-06 07:42:00,
2013-03-06 02:43:00,30.4,24.7,29.73,SW,225,12.0,18.0,79,0.00,,---,0.05,0.00,VWS V14.01,2013-03-06 07:43:00,
2013-03-06 02:44:00,30.3,24.3,29.73,WSW,253,11.0,17.0,78,0.00,,---,0.05,0.00,VWS V14.01,2013-03-06 07:44:00,
2013-03-06 02:45:00,30.3,24.3,29.73,SW,229,16.0,17.0,78,0.00,,---,0.05,0.00,VWS V14.01,2013-03-06 07:45:00,
2013-03-06 02:46:00,30.3,24.0,29.73,WSW,250,7.0,17.0,77,0.00,,---,0.05,0.00,VWS V14.01,2013-03-06 07:46:00,
2013-03-06 02:47:00,30.3,24.3,29.73,WSW,238,5.0,17.0,78,0.00,,---,0.05,0.00,VWS V14.01,2013-03-06 07:47:00,
2013-03-06 02:48:00,30.3,24.3,29.73,WSW,242,9.0,23.0,78,0.00,,---,0.05,0.00,VWS V14.01,2013-03-06 07:48:00,
2013-03-06 02:49:00,30.3,24.3,29.73,WSW,257,7.0,18.0,78,0.00,,---,0.05,0.00,VWS V14.01,2013-03-06 07:49:00,
2013-03-06 02:50:00,30.3,24.3,29.73,WSW,239,14.0,26.0,78,0.00,,---,0.05,0.00,VWS V14.01,2013-03-06 07:50:00,
2013-03-06 02:51:00,30.3,24.3,29.72,SW,218,11.0,26.0,78,0.00,,---,0.05,0.00,VWS V14.01,2013-03-06 07:51:00,
2013-03-06 02:52:00,30.3,24.0,29.73,SW,225,20.0,26.0,77,0.00,,---,0.05,0.00,VWS V14.01,2013-03-06 07:52:00,
2013-03-06 02:53:00,30.3,24.3,29.73,West,264,2.0,17.0,78,0.00,,---,0.05,0.00,VWS V14.01,2013-03-06 07:53:00,
2013-03-06 02:54:00,30.3,24.3,29.73,WSW,258,8.0,26.0,78,0.00,,---,0.05,0.00,VWS V14.01,2013-03-06 07:54:00,
2013-03-06 02:55:00,30.3,24.3,29.72,SW,236,11.0,26.0,78,0.00,,---,0.05,0.00,VWS V14.01,2013-03-06 07:55:00,
2013-03-06 02:56:00,30.3,24.3,29.72,West,280,10.0,26.0,78,0.00,,---,0.05,0.00,VWS V14.01,2013-03-06 07:56:00,
2013-03-06 02:57:00,30.3,24.3,29.72,SW,230,11.0,26.0,78,0.00,,---,0.05,0.00,VWS V14.01,2013-03-06 07:57:00,
2013-03-06 02:58:00,30.2,24.2,29.73,SW,235,9.0,26.0,78,0.00,,---,0.05,0.00,VWS V14.01,2013-03-06 07:58:00,
2013-03-06 02:59:00,30.3,24.3,29.73,SW,236,12.0,18.0,78,0.00,,---,0.05,0.00,VWS V14.01,2013-03-06 07:59:00,
2013-03-06 03:00:00,30.2,24.2,29.72,WSW,246,17.0,19.0,78,0.00,,---,0.05,0.00,VWS V14.01,2013-03-06 08:00:00,
2013-03-06 03:01:00,30.2,24.2,29.72,SSW,205,13.0,19.0,78,0.00,,---,0.05,0.00,VWS V14.01,2013-03-06 08:01:00,
2013-03-06 03:02:00,30.2,24.2,29.72,SW,227,6.0,20.0,78,0.00,,---,0.05,0.00,VWS V14.01,2013-03-06 08:02:00,
2013-03-06 03:03:00,30.2,24.5,29.72,WSW,255,5.0,20.0,79,0.00,,---,0.05,0.00,VWS V14.01,2013-03-06 08:03:00,
2013-03-06 03:04:00,30.3,24.3,29.72,SW,236,4.0,26.0,78,0.00,,---,0.05,0.00,VWS V14.01,2013-03-06 08:04:00,
2013-03-06 03:05:00,30.1,24.1,29.73,West,267,6.0,20.0,78,0.00,,---,0.05,0.00,VWS V14.01,2013-03-06 08:05:00,
2013-03-06 03:06:00,30.1,24.4,29.73,West,260,6.0,20.0,79,0.00,,---,0.05,0.00,VWS V14.01,2013-03-06 08:06:00,
2013-03-06 03:07:00,30.1,24.4,29.73,SW,223,3.0,20.0,79,0.00,,---,0.05,0.00,VWS V14.01,2013-03-06 08:07:00,
2013-03-06 03:08:00,30.1,24.4,29.72,SW,223,6.0,20.0,79,0.00,,---,0.05,0.00,VWS V14.01,2013-03-06 08:08:00,
2013-03-06 03:09:00,30.2,24.2,29.72,West,265,6.0,6.0,78,0.00,,---,0.05,0.00,VWS V14.01,2013-03-06 08:09:00,
2013-03-06 03:10:00,30.1,24.4,29.72,SW,223,11.0,11.0,79,0.00,,---,0.05,0.00,VWS V14.01,2013-03-06 08:10:00,
2013-03-06 03:11:00,30.1,24.1,29.72,SW,234,12.0,15.0,78,0.00,,---,0.05,0.00,VWS V14.01,2013-03-06 08:11:00,
2013-03-06 03:12:00,30.1,24.4,29.72,WSW,251,8.0,15.0,79,0.00,,---,0.05,0.00,VWS V14.01,2013-03-06 08:12:00,
2013-03-06 03:13:00,30.1,24.4,29.72,WSW,252,9.0,15.0,79,0.00,,---,0.05,0.00,VWS V14.01,2013-03-06 08:13:00,
2013-03-06 03:14:00,30.1,24.1,29.73,West,267,5.0,20.0,78,0.00,,---,0.05,0.00,VWS V14.01,2013-03-06 08:14:00,
2013-03-06 03:15:00,30.1,24.1,29.72,West,274,2.0,15.0,78,0.00,,---,0.05,0.00,VWS V14.01,2013-03-06 08:15:00,
2013-03-06 03:16:00,30.0,24.3,29.72,West,274,1.0,15.0,79,0.00,,---,0.05,0.00,VWS V14.01,2013-03-06 08:16:00,
2013-03-06 03:17:00,30.1,24.4,29.72,SW,236,14.0,16.0,79,0.00,,---,0.05,0.00,VWS V14.01,2013-03-06 08:17:00,
2013-03-06 03:18:00,30.0,24.0,29.72,West,267,4.0,16.0,78,0.00,,---,0.05,0.00,VWS V14.01,2013-03-06 08:18:00,
2013-03-06 03:19:00,30.0,24.0,29.72,WSW,246,13.0,16.0,78,0.00,,---,0.05,0.00,VWS V14.01,2013-03-06 08:19:00,
2013-03-06 03:20:00,30.1,24.4,29.72,West,263,8.0,15.0,79,0.00,,---,0.05,0.00,VWS V14.01,2013-03-06 08:20:00,
2013-03-06 03:21:00,30.0,24.3,29.72,SW,234,7.0,12.0,79,0.00,,---,0.05,0.00,VWS V14.01,2013-03-06 08:21:00,
2013-03-06 03:22:00,30.0,24.3,29.73,WSW,237,7.0,12.0,79,0.00,,---,0.05,0.00,VWS V14.01,2013-03-06 08:22:00,
2013-03-06 03:23:00,30.0,24.3,29.72,WSW,239,10.0,12.0,79,0.00,,---,0.05,0.00,VWS V14.01,2013-03-06 08:23:00,
2013-03-06 03:24:00,30.0,24.0,29.72,SW,235,11.0,17.0,78,0.00,,---,0.05,0.00,VWS V14.01,2013-03-06 08:24:00,
2013-03-06 03:25:00,30.1,24.4,29.72,West,274,4.0,15.0,79,0.00,,---,0.05,0.00,VWS V14.01,2013-03-06 08:25:00,
2013-03-06 03:26:00,30.0,24.0,29.72,WSW,244,15.0,18.0,78,0.00,,---,0.05,0.00,VWS V14.01,2013-03-06 08:26:00,
2013-03-06 03:27:00,30.0,24.3,29.72,SW,231,14.0,18.0,79,0.00,,---,0.05,0.00,VWS V14.01,2013-03-06 08:27:00,
2013-03-06 03:28:00,30.0,24.0,29.72,WSW,239,13.0,23.0,78,0.00,,---,0.05,0.00,VWS V14.01,2013-03-06 08:28:00,
2013-03-06 03:29:00,30.0,24.0,29.72,West,274,14.0,23.0,78,0.00,,---,0.05,0.00,VWS V14.01,2013-03-06 08:29:00,
2013-03-06 03:30:00,30.0,24.3,29.72,WSW,252,4.0,5.0,79,0.00,,---,0.05,0.00,VWS V14.01,2013-03-06 08:30:00,
2013-03-06 03:31:00,29.9,23.9,29.72,SW,220,19.0,19.0,78,0.00,,---,0.05,0.00,VWS V14.01,2013-03-06 08:31:00,
2013-03-06 03:32:00,29.9,23.9,29.73,SW,232,11.0,19.0,78,0.00,,---,0.05,0.00,VWS V14.01,2013-03-06 08:32:00,
2013-03-06 03:33:00,29.9,23.9,29.72,West,262,5.0,19.0,78,0.00,,---,0.05,0.00,VWS V14.01,2013-03-06 08:33:00,
2013-03-06 03:34:00,29.9,23.9,29.72,WSW,246,12.0,19.0,78,0.00,,---,0.05,0.00,VWS V14.01,2013-03-06 08:34:00,
2013-03-06 03:35:00,30.0,24.0,29.72,WSW,257,6.0,18.0,78,0.00,,---,0.05,0.00,VWS V14.01,2013-03-06 08:35:00,
2013-03-06 03:36:00,29.8,23.8,29.73,SW,229,5.0,19.0,78,0.00,,---,0.05,0.00,VWS V14.01,2013-03-06 08:36:00,
2013-03-06 03:37:00,29.8,23.8,29.73,West,261,5.0,19.0,78,0.00,,---,0.05,0.00,VWS V14.01,2013-03-06 08:37:00,
2013-03-06 03:38:00,29.8,23.8,29.72,SW,232,10.0,19.0,78,0.00,,---,0.05,0.00,VWS V14.01,2013-03-06 08:38:00,
2013-03-06 03:39:00,29.7,23.7,29.72,SW,221,9.0,19.0,78,0.00,,---,0.05,0.00,VWS V14.01,2013-03-06 08:39:00,
2013-03-06 03:40:00,29.9,23.9,29.72,WSW,240,19.0,19.0,78,0.00,,---,0.05,0.00,VWS V14.01,2013-03-06 08:40:00,
2013-03-06 03:41:00,29.7,23.7,29.73,SW,217,13.0,16.0,78,0.00,,---,0.05,0.00,VWS V14.01,2013-03-06 08:41:00,
2013-03-06 03:42:00,29.7,23.7,29.73,SW,217,7.0,16.0,78,0.00,,---,0.05,0.00,VWS V14.01,2013-03-06 08:42:00,
2013-03-06 03:43:00,29.7,23.7,29.73,SW,218,7.0,16.0,78,0.00,,---,0.05,0.00,VWS V14.01,2013-03-06 08:43:00,
2013-03-06 03:44:00,29.7,24.0,29.73,SW,218,5.0,16.0,79,0.00,,---,0.05,0.00,VWS V14.01,2013-03-06 08:44:00,
2013-03-06 03:45:00,29.7,23.7,29.73,SW,226,6.0,24.0,78,0.00,,---,0.05,0.00,VWS V14.01,2013-03-06 08:45:00,
2013-03-06 03:46:00,29.8,23.8,29.73,SW,231,11.0,19.0,78,0.00,,---,0.05,0.00,VWS V14.01,2013-03-06 08:46:00,
2013-03-06 03:47:00,29.6,23.6,29.73,SW,221,6.0,24.0,78,0.00,,---,0.05,0.00,VWS V14.01,2013-03-06 08:47:00,
2013-03-06 03:48:00,29.6,23.6,29.73,SW,221,12.0,24.0,78,0.00,,---,0.05,0.00,VWS V14.01,2013-03-06 08:48:00,
2013-03-06 03:49:00,29.6,23.6,29.73,WSW,253,5.0,24.0,78,0.00,,---,0.05,0.00,VWS V14.01,2013-03-06 08:49:00,
2013-03-06 03:50:00,29.6,23.6,29.73,SW,232,9.0,14.0,78,0.00,,---,0.05,0.00,VWS V14.01,2013-03-06 08:50:00,
2013-03-06 03:51:00,29.7,23.7,29.73,SW,217,6.0,16.0,78,0.00,,---,0.05,0.00,VWS V14.01,2013-03-06 08:51:00,
2013-03-06 03:52:00,29.5,23.5,29.73,WSW,258,6.0,15.0,78,0.00,,---,0.05,0.00,VWS V14.01,2013-03-06 08:52:00,
2013-03-06 03:53:00,29.5,23.5,29.73,SW,232,11.0,15.0,78,0.00,,---,0.05,0.00,VWS V14.01,2013-03-06 08:53:00,
2013-03-06 03:54:00,29.5,23.5,29.73,WSW,253,13.0,20.0,78,0.00,,---,0.05,0.00,VWS V14.01,2013-03-06 08:54:00,
2013-03-06 03:55:00,29.5,23.2,29.74,WSW,250,4.0,20.0,77,0.00,,---,0.05,0.00,VWS V14.01,2013-03-06 08:55:00,
2013-03-06 03:56:00,29.6,23.9,29.73,SW,221,3.0,24.0,79,0.00,,---,0.05,0.00,VWS V14.01,2013-03-06 08:56:00,
2013-03-06 03:57:00,29.4,23.1,29.74,West,259,9.0,20.0,77,0.00,,---,0.05,0.00,VWS V14.01,2013-03-06 08:57:00,
2013-03-06 03:58:00,29.4,23.4,29.74,WSW,251,13.0,20.0,78,0.00,,---,0.05,0.00,VWS V14.01,2013-03-06 08:58:00,
2013-03-06 03:59:00,29.4,23.1,29.74,SW,236,6.0,27.0,77,0.00,,---,0.05,0.00,VWS V14.01,2013-03-06 08:59:00,
2013-03-06 04:00:00,29.3,23.0,29.74,SW,232,12.0,16.0,77,0.00,,---,0.05,0.00,VWS V14.01,2013-03-06 09:00:00,
2013-03-06 04:01:00,29.5,23.5,29.73,WSW,252,5.0,15.0,78,0.00,,---,0.05,0.00,VWS V14.01,2013-03-06 09:01:00,
2013-03-06 04:02:00,29.3,23.3,29.75,SW,231,1.0,16.0,78,0.00,,---,0.05,0.00,VWS V14.01,2013-03-06 09:02:00,
2013-03-06 04:03:00,29.3,23.3,29.75,SW,231,2.0,16.0,78,0.00,,---,0.05,0.00,VWS V14.01,2013-03-06 09:03:00,
2013-03-06 04:04:00,29.2,23.2,29.75,SW,231,4.0,16.0,78,0.00,,---,0.05,0.00,VWS V14.01,2013-03-06 09:04:00,
2013-03-06 04:05:00,29.2,23.2,29.75,SW,231,8.0,16.0,78,0.00,,---,0.05,0.00,VWS V14.01,2013-03-06 09:05:00,
2013-03-06 04:06:00,29.2,23.2,29.75,West,271,3.0,16.0,78,0.00,,---,0.05,0.00,VWS V14.01,2013-03-06 09:06:00,
2013-03-06 04:07:00,29.4,23.1,29.74,SW,229,11.0,20.0,77,0.00,,---,0.05,0.00,VWS V14.01,2013-03-06 09:07:00,
2013-03-06 04:08:00,29.2,23.2,29.75,SW,235,13.0,16.0,78,0.00,,---,0.05,0.00,VWS V14.01,2013-03-06 09:08:00,
2013-03-06 04:09:00,29.2,23.2,29.74,WSW,238,16.0,19.0,78,0.00,,---,0.05,0.00,VWS V14.01,2013-03-06 09:09:00,
2013-03-06 04:10:00,29.1,23.1,29.75,SW,226,16.0,16.0,78,0.00,,---,0.05,0.00,VWS V14.01,2013-03-06 09:10:00,
2013-03-06 04:11:00,29.2,23.2,29.75,SW,227,4.0,16.0,78,0.00,,---,0.05,0.00,VWS V14.01,2013-03-06 09:11:00,
2013-03-06 04:12:00,29.3,23.0,29.75,SW,231,4.0,16.0,77,0.00,,---,0.05,0.00,VWS V14.01,2013-03-06 09:12:00,
2013-03-06 04:13:00,29.1,23.1,29.75,SW,227,6.0,16.0,78,0.00,,---,0.05,0.00,VWS V14.01,2013-03-06 09:13:00,
2013-03-06 04:14:00,29.1,23.1,29.75,SW,227,5.0,16.0,78,0.00,,---,0.05,0.00,VWS V14.01,2013-03-06 09:14:00,
2013-03-06 04:15:00,29.1,23.4,29.75,SW,227,10.0,16.0,79,0.00,,---,0.05,0.00,VWS V14.01,2013-03-06 09:15:00,
2013-03-06 04:16:00,29.1,23.4,29.74,SW,234,3.0,19.0,79,0.00,,---,0.05,0.00,VWS V14.01,2013-03-06 09:16:00,
2013-03-06 04:17:00,29.1,23.4,29.75,SW,234,9.0,19.0,79,0.00,,---,0.05,0.00,VWS V14.01,2013-03-06 09:17:00,
2013-03-06 04:18:00,29.2,23.2,29.75,WSW,257,5.0,18.0,78,0.00,,---,0.05,0.00,VWS V14.01,2013-03-06 09:18:00,
2013-03-06 04:19:00,29.0,23.3,29.75,SW,234,5.0,19.0,79,0.00,,---,0.05,0.00,VWS V14.01,2013-03-06 09:19:00,
2013-03-06 04:20:00,29.0,23.3,29.75,WSW,252,6.0,12.0,79,0.00,,---,0.05,0.00,VWS V14.01,2013-03-06 09:20:00,
2013-03-06 04:21:00,29.0,23.3,29.75,WSW,257,5.0,16.0,79,0.00,,---,0.05,0.00,VWS V14.01,2013-03-06 09:21:00,
2013-03-06 04:22:00,29.0,23.3,29.75,West,262,6.0,16.0,79,0.00,,---,0.05,0.00,VWS V14.01,2013-03-06 09:22:00,
2013-03-06 04:23:00,29.1,23.1,29.75,SW,227,4.0,16.0,78,0.00,,---,0.05,0.00,VWS V14.01,2013-03-06 09:23:00,
2013-03-06 04:24:00,29.0,23.3,29.75,SW,236,7.0,20.0,79,0.00,,---,0.05,0.00,VWS V14.01,2013-03-06 09:24:00,
2013-03-06 04:25:00,29.0,23.3,29.75,SW,236,9.0,20.0,79,0.00,,---,0.05,0.00,VWS V14.01,2013-03-06 09:25:00,
2013-03-06 04:26:00,29.0,23.6,29.75,SW,225,5.0,20.0,80,0.00,,---,0.05,0.00,VWS V14.01,2013-03-06 09:26:00,
2013-03-06 04:27:00,29.0,23.6,29.75,SW,230,12.0,20.0,80,0.00,,---,0.05,0.00,VWS V14.01,2013-03-06 09:27:00,
2013-03-06 04:28:00,29.0,23.3,29.75,SW,234,4.0,19.0,79,0.00,,---,0.05,0.00,VWS V14.01,2013-03-06 09:28:00,
2013-03-06 04:29:00,28.9,23.5,29.75,WSW,252,5.0,20.0,80,0.00,,---,0.05,0.00,VWS V14.01,2013-03-06 09:29:00,
2013-03-06 04:30:00,28.9,23.5,29.75,WSW,243,2.0,13.0,80,0.00,,---,0.05,0.00,VWS V14.01,2013-03-06 09:30:00,
2013-03-06 04:31:00,28.9,23.8,29.75,WSW,251,4.0,13.0,81,0.00,,---,0.05,0.00,VWS V14.01,2013-03-06 09:31:00,
2013-03-06 04:32:00,28.8,23.4,29.75,WSW,239,9.0,13.0,80,0.00,,---,0.05,0.00,VWS V14.01,2013-03-06 09:32:00,
2013-03-06 04:33:00,28.8,23.4,29.75,WSW,258,5.0,16.0,80,0.00,,---,0.05,0.00,VWS V14.01,2013-03-06 09:33:00,
2013-03-06 04:34:00,29.0,23.3,29.75,WSW,257,9.0,20.0,79,0.00,,---,0.05,0.00,VWS V14.01,2013-03-06 09:34:00,
2013-03-06 04:35:00,28.8,23.4,29.75,West,268,2.0,16.0,80,0.00,,---,0.05,0.00,VWS V14.01,2013-03-06 09:35:00,
2013-03-06 04:36:00,28.8,23.4,29.76,West,267,3.0,16.0,80,0.00,,---,0.05,0.00,VWS V14.01,2013-03-06 09:36:00,
2013-03-06 04:37:00,28.8,23.7,29.75,SW,221,14.0,16.0,81,0.00,,---,0.05,0.00,VWS V14.01,2013-03-06 09:37:00,
2013-03-06 04:38:00,28.7,23.3,29.75,SW,230,6.0,17.0,80,0.00,,---,0.05,0.00,VWS V14.01,2013-03-06 09:38:00,
2013-03-06 04:39:00,28.9,23.5,29.75,SW,236,8.0,20.0,80,0.00,,---,0.05,0.00,VWS V14.01,2013-03-06 09:39:00,
2013-03-06 04:40:00,28.8,23.7,29.76,SW,234,10.0,15.0,81,0.00,,---,0.05,0.00,VWS V14.01,2013-03-06 09:40:00,
2013-03-06 04:41:00,28.8,23.4,29.76,SW,229,13.0,15.0,80,0.00,,---,0.05,0.00,VWS V14.01,2013-03-06 09:41:00,
2013-03-06 04:42:00,28.8,23.4,29.76,WSW,251,4.0,16.0,80,0.00,,---,0.05,0.00,VWS V14.01,2013-03-06 09:42:00,
2013-03-06 04:43:00,28.8,23.7,29.76,WSW,254,4.0,16.0,81,0.00,,---,0.05,0.00,VWS V14.01,2013-03-06 09:43:00,
2013-03-06 04:44:00,28.8,23.4,29.75,SW,234,3.0,16.0,80,0.00,,---,0.05,0.00,VWS V14.01,2013-03-06 09:44:00,
2013-03-06 04:45:00,28.8,23.7,29.76,SW,224,4.0,16.0,81,0.00,,---,0.05,0.00,VWS V14.01,2013-03-06 09:45:00,
2013-03-06 04:46:00,28.8,23.7,29.76,SW,224,6.0,16.0,81,0.00,,---,0.05,0.00,VWS V14.01,2013-03-06 09:46:00,
2013-03-06 04:47:00,28.8,23.7,29.76,WSW,256,6.0,22.0,81,0.00,,---,0.05,0.00,VWS V14.01,2013-03-06 09:47:00,
2013-03-06 04:48:00,28.8,23.4,29.76,SW,229,18.0,22.0,80,0.00,,---,0.05,0.00,VWS V14.01,2013-03-06 09:48:00,
2013-03-06 04:49:00,28.8,23.4,29.76,WSW,246,10.0,17.0,80,0.00,,---,0.05,0.00,VWS V14.01,2013-03-06 09:49:00,
2013-03-06 04:50:00,28.8,23.4,29.77,SW,235,5.0,13.0,80,0.00,,---,0.05,0.00,VWS V14.01,2013-03-06 09:50:00,
2013-03-06 04:51:00,28.9,23.8,29.77,SW,235,5.0,13.0,81,0.00,,---,0.05,0.00,VWS V14.01,2013-03-06 09:51:00,
2013-03-06 04:52:00,28.8,23.4,29.76,WSW,253,3.0,13.0,80,0.00,,---,0.05,0.00,VWS V14.01,2013-03-06 09:52:00,
2013-03-06 04:53:00,28.8,23.4,29.77,SW,236,8.0,13.0,80,0.00,,---,0.05,0.00,VWS V14.01,2013-03-06 09:53:00,
2013-03-06 04:54:00,28.8,23.7,29.76,SW,224,10.0,16.0,81,0.00,,---,0.05,0.00,VWS V14.01,2013-03-06 09:54:00,
2013-03-06 04:55:00,28.8,23.4,29.77,SW,232,3.0,13.0,80,0.00,,---,0.05,0.00,VWS V14.01,2013-03-06 09:55:00,
2013-03-06 04:56:00,28.8,23.7,29.77,SW,233,7.0,13.0,81,0.00,,---,0.05,0.00,VWS V14.01,2013-03-06 09:56:00,
2013-03-06 04:57:00,28.8,23.7,29.77,WSW,250,5.0,13.0,81,0.00,,---,0.05,0.00,VWS V14.01,2013-03-06 09:57:00,
2013-03-06 04:58:00,28.8,23.7,29.77,SW,234,17.0,17.0,81,0.00,,---,0.05,0.00,VWS V14.01,2013-03-06 09:58:00,
2013-03-06 04:59:00,28.8,23.4,29.77,SW,235,8.0,13.0,80,0.00,,---,0.05,0.00,VWS V14.01,2013-03-06 09:59:00,
2013-03-06 05:00:00,28.9,23.8,29.77,SW,230,12.0,17.0,81,0.00,,---,0.05,0.00,VWS V14.01,2013-03-06 10:00:00,
2013-03-06 05:01:00,28.9,23.8,29.77,WSW,254,3.0,17.0,81,0.00,,---,0.05,0.00,VWS V14.01,2013-03-06 10:01:00,
2013-03-06 05:02:00,28.9,23.8,29.77,SW,234,17.0,17.0,81,0.00,,---,0.05,0.00,VWS V14.01,2013-03-06 10:02:00,
2013-03-06 05:03:00,28.8,23.7,29.77,SW,235,0.0,17.0,81,0.00,,---,0.05,0.00,VWS V14.01,2013-03-06 10:03:00,
2013-03-06 05:04:00,28.8,23.7,29.77,SW,235,3.0,17.0,81,0.00,,---,0.05,0.00,VWS V14.01,2013-03-06 10:04:00,
2013-03-06 05:05:00,28.9,23.8,29.77,SW,233,3.0,13.0,81,0.00,,---,0.05,0.00,VWS V14.01,2013-03-06 10:05:00,
2013-03-06 05:06:00,28.8,24.0,29.77,SW,235,6.0,17.0,82,0.00,,---,0.05,0.00,VWS V14.01,2013-03-06 10:06:00,
2013-03-06 05:07:00,28.8,24.0,29.77,SW,235,8.0,17.0,82,0.00,,---,0.05,0.00,VWS V14.01,2013-03-06 10:07:00,
2013-03-06 05:08:00,28.8,24.0,29.77,SW,235,9.0,17.0,82,0.00,,---,0.05,0.00,VWS V14.01,2013-03-06 10:08:00,
2013-03-06 05:09:00,28.8,24.0,29.77,WSW,239,7.0,17.0,82,0.00,,---,0.05,0.00,VWS V14.01,2013-03-06 10:09:00,
2013-03-06 05:10:00,28.9,23.8,29.77,WSW,255,6.0,17.0,81,0.00,,---,0.05,0.00,VWS V14.01,2013-03-06 10:10:00,
2013-03-06 05:11:00,28.7,23.9,29.77,SW,232,2.0,14.0,82,0.00,,---,0.05,0.00,VWS V14.01,2013-03-06 10:11:00,
2013-03-06 05:12:00,28.7,23.9,29.77,SW,232,2.0,14.0,82,0.00,,---,0.05,0.00,VWS V14.01,2013-03-06 10:12:00,
2013-03-06 05:13:00,28.7,23.9,29.77,SW,232,5.0,14.0,82,0.00,,---,0.05,0.00,VWS V14.01,2013-03-06 10:13:00,
2013-03-06 05:14:00,28.7,24.2,29.77,SW,232,1.0,14.0,83,0.00,,---,0.05,0.00,VWS V14.01,2013-03-06 10:14:00,
2013-03-06 05:15:00,28.8,24.0,29.77,SW,235,4.0,17.0,82,0.00,,---,0.05,0.00,VWS V14.01,2013-03-06 10:15:00,
2013-03-06 05:16:00,28.7,24.2,29.77,SW,232,3.0,14.0,83,0.00,,---,0.05,0.00,VWS V14.01,2013-03-06 10:16:00,
2013-03-06 05:17:00,28.7,24.2,29.78,West,259,7.0,14.0,83,0.00,,---,0.05,0.00,VWS V14.01,2013-03-06 10:17:00,
2013-03-06 05:18:00,28.7,24.2,29.77,West,259,2.0,14.0,83,0.00,,---,0.05,0.00,VWS V14.01,2013-03-06 10:18:00,
2013-03-06 05:19:00,28.7,24.2,29.78,SW,234,8.0,14.0,83,0.00,,---,0.05,0.00,VWS V14.01,2013-03-06 10:19:00,
2013-03-06 05:20:00,28.6,24.1,29.78,SW,234,5.0,6.0,83,0.00,,---,0.05,0.00,VWS V14.01,2013-03-06 10:20:00,
2013-03-06 05:21:00,28.7,23.9,29.77,SW,232,6.0,14.0,82,0.00,,---,0.05,0.00,VWS V14.01,2013-03-06 10:21:00,
2013-03-06 05:22:00,28.6,24.1,29.78,SW,234,3.0,6.0,83,0.00,,---,0.05,0.00,VWS V14.01,2013-03-06 10:22:00,
2013-03-06 05:23:00,28.6,24.1,29.78,SW,234,3.0,6.0,83,0.00,,---,0.05,0.00,VWS V14.01,2013-03-06 10:23:00,
2013-03-06 05:24:00,28.6,24.1,29.78,WSW,256,5.0,6.0,83,0.00,,---,0.05,0.00,VWS V14.01,2013-03-06 10:24:00,
2013-03-06 05:25:00,28.6,24.1,29.78,SW,234,5.0,12.0,83,0.00,,---,0.05,0.00,VWS V14.01,2013-03-06 10:25:00,
2013-03-06 05:26:00,28.7,24.2,29.78,SW,232,6.0,14.0,83,0.00,,---,0.05,0.00,VWS V14.01,2013-03-06 10:26:00,
2013-03-06 05:27:00,28.6,24.1,29.77,SW,229,5.0,13.0,83,0.00,,---,0.05,0.00,VWS V14.01,2013-03-06 10:27:00,
2013-03-06 05:28:00,28.6,24.1,29.78,SW,229,0.0,13.0,83,0.00,,---,0.05,0.00,VWS V14.01,2013-03-06 10:28:00,
2013-03-06 05:29:00,28.5,24.0,29.78,SW,229,6.0,13.0,83,0.00,,---,0.05,0.00,VWS V14.01,2013-03-06 10:29:00,
2013-03-06 05:30:00,28.6,24.1,29.78,SW,229,6.0,6.0,83,0.00,,---,0.05,0.00,VWS V14.01,2013-03-06 10:30:00,
2013-03-06 05:31:00,28.7,24.2,29.78,SW,234,3.0,6.0,83,0.00,,---,0.05,0.00,VWS V14.01,2013-03-06 10:31:00,
2013-03-06 05:32:00,28.5,24.0,29.78,SW,229,10.0,10.0,83,0.00,,---,0.05,0.00,VWS V14.01,2013-03-06 10:32:00,
2013-03-06 05:33:00,28.5,24.0,29.78,SW,229,6.0,10.0,83,0.00,,---,0.05,0.00,VWS V14.01,2013-03-06 10:33:00,
2013-03-06 05:34:00,28.5,24.0,29.77,SW,229,2.0,10.0,83,0.00,,---,0.05,0.00,VWS V14.01,2013-03-06 10:34:00,
2013-03-06 05:35:00,28.5,24.0,29.77,SW,229,3.0,11.0,83,0.00,,---,0.05,0.00,VWS V14.01,2013-03-06 10:35:00,
2013-03-06 05:36:00,28.6,24.1,29.77,SW,229,4.0,13.0,83,0.00,,---,0.05,0.00,VWS V14.01,2013-03-06 10:36:00,
2013-03-06 05:37:00,28.5,24.0,29.78,SW,229,1.0,11.0,83,0.00,,---,0.05,0.00,VWS V14.01,2013-03-06 10:37:00,
2013-03-06 05:38:00,28.5,24.3,29.78,SW,229,8.0,11.0,84,0.00,,---,0.05,0.00,VWS V14.01,2013-03-06 10:38:00,
2013-03-06 05:39:00,28.5,24.3,29.78,SW,229,6.0,11.0,84,0.00,,---,0.05,0.00,VWS V14.01,2013-03-06 10:39:00,
2013-03-06 05:40:00,28.5,24.3,29.78,SW,229,5.0,6.0,84,0.00,,---,0.05,0.00,VWS V14.01,2013-03-06 10:40:00,
2013-03-06 05:41:00,28.5,24.0,29.78,SW,229,7.0,10.0,83,0.00,,---,0.05,0.00,VWS V14.01,2013-03-06 10:41:00,
2013-03-06 05:42:00,28.5,24.3,29.78,SW,229,9.0,10.0,84,0.00,,---,0.05,0.00,VWS V14.01,2013-03-06 10:42:00,
2013-03-06 05:43:00,28.5,24.3,29.78,WSW,242,4.0,15.0,84,0.00,,---,0.05,0.00,VWS V14.01,2013-03-06 10:43:00,
2013-03-06 05:44:00,28.4,24.2,29.78,West,266,1.0,15.0,84,0.00,,---,0.05,0.00,VWS V14.01,2013-03-06 10:44:00,
2013-03-06 05:45:00,28.5,24.3,29.78,West,266,4.0,15.0,84,0.00,,---,0.05,0.00,VWS V14.01,2013-03-06 10:45:00,
2013-03-06 05:46:00,28.5,24.0,29.78,SW,229,2.0,11.0,83,0.00,,---,0.05,0.00,VWS V14.01,2013-03-06 10:46:00,
2013-03-06 05:47:00,28.4,24.2,29.78,WSW,252,5.0,15.0,84,0.00,,---,0.05,0.00,VWS V14.01,2013-03-06 10:47:00,
2013-03-06 05:48:00,28.4,24.2,29.78,WSW,256,4.0,15.0,84,0.00,,---,0.05,0.00,VWS V14.01,2013-03-06 10:48:00,
2013-03-06 05:49:00,28.4,24.5,29.78,West,261,5.0,15.0,85,0.00,,---,0.05,0.00,VWS V14.01,2013-03-06 10:49:00,
2013-03-06 05:50:00,28.3,24.4,29.78,West,260,0.0,2.0,85,0.00,,---,0.05,0.00,VWS V14.01,2013-03-06 10:50:00,
2013-03-06 05:51:00,28.5,24.3,29.78,SW,229,9.0,10.0,84,0.00,,---,0.05,0.00,VWS V14.01,2013-03-06 10:51:00,
2013-03-06 05:56:00,28.4,24.2,29.78,SW,236,9.0,15.0,84,0.00,,---,0.05,0.00,VWS V14.01,2013-03-06 10:56:00,
2013-03-06 06:00:00,28.2,24.6,29.78,SW,225,5.0,13.0,86,0.00,,---,0.05,0.00,VWS V14.01,2013-03-06 11:00:00,
2013-03-06 06:10:00,28.1,24.7,29.78,West,270,5.0,13.0,87,0.00,,---,0.05,0.00,VWS V14.01,2013-03-06 11:10:00,
2013-03-06 06:20:00,27.9,24.8,29.78,West,270,6.0,15.0,88,0.00,,---,0.05,0.00,VWS V14.01,2013-03-06 11:20:00,
2013-03-06 06:30:00,27.7,25.2,29.79,West,270,5.0,11.0,90,0.00,,---,0.05,0.00,VWS V14.01,2013-03-06 11:30:00,
2013-03-06 06:40:00,27.5,25.2,29.79,SW,225,6.0,16.0,91,0.00,,---,0.05,0.00,VWS V14.01,2013-03-06 11:40:00,
2013-03-06 06:50:00,27.5,25.5,29.80,West,270,5.0,18.0,92,0.00,,---,0.05,0.00,VWS V14.01,2013-03-06 11:50:00,
2013-03-06 07:00:00,27.6,25.6,29.80,SW,225,6.0,15.0,92,0.00,,---,0.05,6.00,VWS V14.01,2013-03-06 12:00:00,
2013-03-06 07:10:00,27.6,25.6,29.81,SW,225,6.0,20.0,92,0.00,,---,0.05,6.00,VWS V14.01,2013-03-06 12:10:00,
2013-03-06 07:20:00,27.8,25.8,29.82,SW,225,6.0,15.0,92,0.00,,---,0.05,10.00,VWS V14.01,2013-03-06 12:20:00,
2013-03-06 07:30:00,27.9,25.6,29.83,SW,225,6.0,13.0,91,0.00,,---,0.05,13.00,VWS V14.01,2013-03-06 12:30:00,
2013-03-06 07:40:00,27.9,25.6,29.83,SW,225,7.0,17.0,91,0.00,,---,0.05,17.00,VWS V14.01,2013-03-06 12:40:00,
2013-03-06 07:50:00,27.9,25.6,29.83,SW,225,6.0,13.0,91,0.00,,---,0.05,28.00,VWS V14.01,2013-03-06 12:50:00,
2013-03-06 08:00:00,28.0,25.7,29.84,WSW,248,7.0,17.0,91,0.00,,---,0.05,34.00,VWS V14.01,2013-03-06 13:00:00,
2013-03-06 08:10:00,28.1,25.8,29.85,SW,225,5.0,16.0,91,0.00,,---,0.05,37.00,VWS V14.01,2013-03-06 13:10:00,
2013-03-06 08:20:00,28.0,26.0,29.85,WSW,248,5.0,14.0,92,0.00,,---,0.05,38.00,VWS V14.01,2013-03-06 13:20:00,
2013-03-06 08:30:00,28.0,26.0,29.87,SW,225,5.0,13.0,92,0.00,,---,0.05,36.00,VWS V14.01,2013-03-06 13:30:00,
2013-03-06 08:40:00,28.0,26.2,29.88,SW,225,5.0,13.0,93,0.00,,---,0.05,76.00,VWS V14.01,2013-03-06 13:40:00,
2013-03-06 08:50:00,28.1,26.3,29.89,WSW,248,5.0,13.0,93,0.00,,---,0.05,96.00,VWS V14.01,2013-03-06 13:50:00,
2013-03-06 09:00:00,28.2,26.4,29.90,WSW,248,4.0,11.0,93,0.00,,---,0.05,103.00,VWS V14.01,2013-03-06 14:00:00,
2013-03-06 09:10:00,28.4,26.6,29.90,WSW,248,5.0,12.0,93,0.00,,---,0.05,141.00,VWS V14.01,2013-03-06 14:10:00,
2013-03-06 09:20:00,28.5,27.0,29.91,WSW,248,6.0,13.0,94,0.00,,---,0.05,157.00,VWS V14.01,2013-03-06 14:20:00,
2013-03-06 09:30:00,28.6,26.8,29.92,WSW,248,7.0,19.0,93,0.00,,---,0.05,151.00,VWS V14.01,2013-03-06 14:30:00,
2013-03-06 09:40:00,28.9,27.1,29.92,WSW,248,5.0,14.0,93,0.00,,---,0.05,179.00,VWS V14.01,2013-03-06 14:40:00,
2013-03-06 09:50:00,29.1,27.1,29.92,WSW,248,6.0,16.0,92,0.00,,---,0.05,225.00,VWS V14.01,2013-03-06 14:50:00,
2013-03-06 10:00:00,29.4,27.4,29.93,WSW,248,6.0,16.0,92,0.00,,---,0.05,250.00,VWS V14.01,2013-03-06 15:00:00,
2013-03-06 10:10:00,29.3,27.0,29.93,WSW,248,7.0,17.0,91,0.00,,---,0.05,196.00,VWS V14.01,2013-03-06 15:10:00,
2013-03-06 10:20:00,29.4,27.1,29.94,SW,225,6.0,14.0,91,0.00,,---,0.05,153.00,VWS V14.01,2013-03-06 15:20:00,
2013-03-06 10:30:00,29.4,26.8,29.94,WSW,248,8.0,18.0,90,0.00,,---,0.05,173.00,VWS V14.01,2013-03-06 15:30:00,
2013-03-06 10:40:00,29.6,27.0,29.95,WSW,248,8.0,19.0,90,0.00,,---,0.05,189.00,VWS V14.01,2013-03-06 15:40:00,
2013-03-06 10:50:00,29.7,26.9,29.95,WSW,248,7.0,17.0,89,0.00,,---,0.05,180.00,VWS V14.01,2013-03-06 15:50:00,
2013-03-06 11:00:00,29.8,27.0,29.95,WSW,248,7.0,17.0,89,0.00,,---,0.05,183.00,VWS V14.01,2013-03-06 16:00:00,
2013-03-06 11:10:00,29.8,27.0,29.97,WSW,248,8.0,18.0,89,0.00,,---,0.05,149.00,VWS V14.01,2013-03-06 16:10:00,
2013-03-06 11:20:00,29.8,27.0,29.97,WSW,248,9.0,19.0,89,0.00,,---,0.05,146.00,VWS V14.01,2013-03-06 16:20:00,
2013-03-06 11:30:00,29.9,27.1,29.97,WSW,248,8.0,16.0,89,0.00,,---,0.05,162.00,VWS V14.01,2013-03-06 16:30:00,
2013-03-06 11:40:00,29.9,27.1,29.98,WSW,248,7.0,17.0,89,0.00,,---,0.05,180.00,VWS V14.01,2013-03-06 16:40:00,
2013-03-06 11:50:00,30.0,27.2,29.98,WSW,248,7.0,16.0,89,0.00,,---,0.05,154.00,VWS V14.01,2013-03-06 16:50:00,
2013-03-06 12:00:00,30.0,27.2,29.99,SW,225,8.0,15.0,89,0.00,,---,0.05,142.00,VWS V14.01,2013-03-06 17:00:00,
2013-03-06 12:10:00,30.1,27.0,29.99,WSW,248,8.0,18.0,88,0.00,,---,0.05,150.00,VWS V14.01,2013-03-06 17:10:00,
2013-03-06 12:20:00,30.1,27.0,29.99,WSW,248,9.0,18.0,88,0.00,,---,0.05,149.00,VWS V14.01,2013-03-06 17:20:00,
2013-03-06 12:30:00,30.2,27.1,29.99,WSW,248,5.0,12.0,88,0.00,,---,0.05,130.00,VWS V14.01,2013-03-06 17:30:00,
2013-03-06 12:40:00,30.3,27.2,30.00,WSW,248,5.0,15.0,88,0.00,,---,0.05,127.00,VWS V14.01,2013-03-06 17:40:00,
2013-03-06 12:50:00,30.3,26.9,30.01,WSW,248,5.0,14.0,87,0.00,,---,0.05,92.00,VWS V14.01,2013-03-06 17:50:00,
2013-03-06 13:00:00,30.3,26.6,30.01,SW,225,7.0,18.0,86,0.00,,---,0.05,89.00,VWS V14.01,2013-03-06 18:00:00,
2013-03-06 13:10:00,30.4,27.0,30.01,WSW,248,6.0,18.0,87,0.00,,---,0.05,85.00,VWS V14.01,2013-03-06 18:10:00,
2013-03-06 13:20:00,30.4,27.0,30.01,SW,225,7.0,17.0,87,0.00,,---,0.05,84.00,VWS V14.01,2013-03-06 18:20:00,
2013-03-06 13:30:00,30.3,26.9,30.02,WSW,248,7.0,19.0,87,0.00,,---,0.05,69.00,VWS V14.01,2013-03-06 18:30:00,
2013-03-06 13:40:00,30.3,26.9,30.02,WSW,248,4.0,15.0,87,0.00,,---,0.05,64.00,VWS V14.01,2013-03-06 18:40:00,
2013-03-06 13:50:00,30.3,26.9,30.02,WSW,248,6.0,15.0,87,0.00,,---,0.05,72.00,VWS V14.01,2013-03-06 18:50:00,
2013-03-06 14:00:00,30.4,26.7,30.02,SW,225,7.0,17.0,86,0.00,,---,0.05,103.00,VWS V14.01,2013-03-06 19:00:00,
2013-03-06 14:10:00,30.4,26.7,30.03,WSW,248,7.0,19.0,86,0.00,,---,0.05,84.00,VWS V14.01,2013-03-06 19:10:00,
2013-03-06 14:20:00,30.5,26.8,30.03,SW,225,5.0,16.0,86,0.00,,---,0.05,79.00,VWS V14.01,2013-03-06 19:20:00,
2013-03-06 14:30:00,30.6,26.9,30.04,WSW,248,4.0,14.0,86,0.00,,---,0.05,75.00,VWS V14.01,2013-03-06 19:30:00,
2013-03-06 14:40:00,30.6,26.6,30.05,WSW,248,4.0,13.0,85,0.00,,---,0.05,76.00,VWS V14.01,2013-03-06 19:40:00,
2013-03-06 14:50:00,30.6,26.6,30.05,WSW,248,5.0,15.0,85,0.00,,---,0.05,72.00,VWS V14.01,2013-03-06 19:50:00,
2013-03-06 15:00:00,30.5,26.5,30.06,SW,225,5.0,12.0,85,0.00,,---,0.05,63.00,VWS V14.01,2013-03-06 20:00:00,
2013-03-06 15:10:00,30.5,26.5,30.07,WSW,248,5.0,12.0,85,0.00,,---,0.05,49.00,VWS V14.01,2013-03-06 20:10:00,
2013-03-06 15:20:00,30.5,26.5,30.08,WSW,248,5.0,13.0,85,0.00,,---,0.05,47.00,VWS V14.01,2013-03-06 20:20:00,
2013-03-06 15:30:00,30.4,26.4,30.08,WSW,248,5.0,12.0,85,0.00,,---,0.05,48.00,VWS V14.01,2013-03-06 20:30:00,
2013-03-06 15:40:00,30.3,26.3,30.09,SW,225,7.0,13.0,85,0.00,,---,0.05,54.00,VWS V14.01,2013-03-06 20:40:00,
2013-03-06 15:50:00,30.3,26.6,30.09,SW,225,4.0,16.0,86,0.00,,---,0.05,51.00,VWS V14.01,2013-03-06 20:50:00,
2013-03-06 16:00:00,30.3,26.6,30.09,WSW,248,4.0,12.0,86,0.00,,---,0.05,45.00,VWS V14.01,2013-03-06 21:00:00,
2013-03-06 16:10:00,30.3,26.6,30.10,WSW,248,5.0,13.0,86,0.00,,---,0.05,40.00,VWS V14.01,2013-03-06 21:10:00,
2013-03-06 16:20:00,30.3,26.6,30.11,SW,225,5.0,11.0,86,0.00,,---,0.05,40.00,VWS V14.01,2013-03-06 21:20:00,
2013-03-06 16:30:00,30.3,26.6,30.12,WSW,248,4.0,11.0,86,0.00,,---,0.05,35.00,VWS V14.01,2013-03-06 21:30:00,
2013-03-06 16:40:00,30.3,26.6,30.12,WSW,248,4.0,13.0,86,0.00,,---,0.05,27.00,VWS V14.01,2013-03-06 21:40:00,
2013-03-06 16:50:00,30.2,26.8,30.13,WSW,248,4.0,14.0,87,0.00,,---,0.05,25.00,VWS V14.01,2013-03-06 21:50:00,
2013-03-06 17:00:00,30.3,26.9,30.13,SW,236,6.0,6.0,87,0.00,,---,0.05,25.00,VWS V14.01,2013-03-06 22:00:00,
2013-03-06 17:01:00,30.2,26.8,30.13,SW,234,5.0,8.0,87,0.00,,---,0.05,23.00,VWS V14.01,2013-03-06 22:01:00,
2013-03-06 17:02:00,30.3,26.9,30.13,SW,222,7.0,11.0,87,0.00,,---,0.05,23.00,VWS V14.01,2013-03-06 22:02:00,
2013-03-06 17:03:00,30.2,26.8,30.13,SW,232,4.0,11.0,87,0.00,,---,0.05,23.00,VWS V14.01,2013-03-06 22:03:00,
2013-03-06 17:04:00,30.2,26.8,30.13,SW,228,3.0,11.0,87,0.00,,---,0.05,23.00,VWS V14.01,2013-03-06 22:04:00,
2013-03-06 17:05:00,30.3,26.9,30.13,SW,221,5.0,11.0,87,0.00,,---,0.05,21.00,VWS V14.01,2013-03-06 22:05:00,
2013-03-06 17:06:00,30.3,26.9,30.13,SSW,212,5.0,11.0,87,0.00,,---,0.05,21.00,VWS V14.01,2013-03-06 22:06:00,
2013-03-06 17:07:00,30.3,26.9,30.14,SSW,212,3.0,11.0,87,0.00,,---,0.05,19.00,VWS V14.01,2013-03-06 22:07:00,
2013-03-06 17:08:00,30.3,26.9,30.14,WSW,237,5.0,11.0,87,0.00,,---,0.05,19.00,VWS V14.01,2013-03-06 22:08:00,
2013-03-06 17:09:00,30.3,26.9,30.14,SSW,192,4.0,11.0,87,0.00,,---,0.05,19.00,VWS V14.01,2013-03-06 22:09:00,
2013-03-06 17:10:00,30.3,26.9,30.13,SSW,213,5.0,7.0,87,0.00,,---,0.05,23.00,VWS V14.01,2013-03-06 22:10:00,
2013-03-06 17:11:00,30.3,26.9,30.14,SW,234,5.0,7.0,87,0.00,,---,0.05,18.00,VWS V14.01,2013-03-06 22:11:00,
2013-03-06 17:12:00,30.3,26.9,30.14,SW,233,2.0,7.0,87,0.00,,---,0.05,18.00,VWS V14.01,2013-03-06 22:12:00,
2013-03-06 17:13:00,30.3,26.9,30.14,SW,233,3.0,7.0,87,0.00,,---,0.05,19.00,VWS V14.01,2013-03-06 22:13:00,
2013-03-06 17:14:00,30.3,26.9,30.14,SW,233,1.0,7.0,87,0.00,,---,0.05,19.00,VWS V14.01,2013-03-06 22:14:00,
2013-03-06 17:15:00,30.3,26.9,30.13,SW,234,3.0,11.0,87,0.00,,---,0.05,21.00,VWS V14.01,2013-03-06 22:15:00,
2013-03-06 17:16:00,30.3,26.9,30.14,SW,235,3.0,7.0,87,0.00,,---,0.05,16.00,VWS V14.01,2013-03-06 22:16:00,
2013-03-06 17:17:00,30.3,26.9,30.14,SW,235,0.0,7.0,87,0.00,,---,0.05,14.00,VWS V14.01,2013-03-06 22:17:00,
2013-03-06 17:18:00,30.3,26.9,30.14,SW,234,4.0,7.0,87,0.00,,---,0.05,14.00,VWS V14.01,2013-03-06 22:18:00,
2013-03-06 17:19:00,30.3,26.9,30.14,SW,234,2.0,7.0,87,0.00,,---,0.05,12.00,VWS V14.01,2013-03-06 22:19:00,
2013-03-06 17:20:00,30.3,26.9,30.14,SW,231,3.0,5.0,87,0.00,,---,0.05,18.00,VWS V14.01,2013-03-06 22:20:00,
2013-03-06 17:21:00,30.3,26.9,30.14,SW,229,1.0,5.0,87,0.00,,---,0.05,14.00,VWS V14.01,2013-03-06 22:21:00,
2013-03-06 17:22:00,30.3,26.9,30.14,SW,234,4.0,6.0,87,0.00,,---,0.05,16.00,VWS V14.01,2013-03-06 22:22:00,
2013-03-06 17:23:00,30.3,26.9,30.14,WSW,238,1.0,6.0,87,0.00,,---,0.05,16.00,VWS V14.01,2013-03-06 22:23:00,
2013-03-06 17:24:00,30.3,26.9,30.14,WSW,238,1.0,6.0,87,0.00,,---,0.05,16.00,VWS V14.01,2013-03-06 22:24:00,
2013-03-06 17:25:00,30.3,26.9,30.14,WSW,238,0.0,6.0,87,0.00,,---,0.05,14.00,VWS V14.01,2013-03-06 22:25:00,
2013-03-06 17:26:00,30.3,26.9,30.14,SW,235,2.0,7.0,87,0.00,,---,0.05,14.00,VWS V14.01,2013-03-06 22:26:00,
2013-03-06 17:27:00,30.3,26.9,30.14,WSW,238,2.0,6.0,87,0.00,,---,0.05,12.00,VWS V14.01,2013-03-06 22:27:00,
2013-03-06 17:28:00,30.3,26.9,30.14,WSW,237,2.0,6.0,87,0.00,,---,0.05,12.00,VWS V14.01,2013-03-06 22:28:00,
2013-03-06 17:29:00,30.2,26.8,30.14,WSW,237,0.0,6.0,87,0.00,,---,0.05,11.00,VWS V14.01,2013-03-06 22:29:00,
2013-03-06 17:30:00,30.3,26.9,30.15,WSW,237,4.0,4.0,87,0.00,,---,0.05,11.00,VWS V14.01,2013-03-06 22:30:00,
2013-03-06 17:31:00,30.3,26.9,30.14,SW,234,3.0,6.0,87,0.00,,---,0.05,14.00,VWS V14.01,2013-03-06 22:31:00,
2013-03-06 17:32:00,30.3,27.2,30.15,WSW,238,0.0,5.0,88,0.00,,---,0.05,11.00,VWS V14.01,2013-03-06 22:32:00,
2013-03-06 17:33:00,30.3,27.2,30.15,WSW,238,6.0,6.0,88,0.00,,---,0.05,11.00,VWS V14.01,2013-03-06 22:33:00,
2013-03-06 17:34:00,30.3,27.2,30.15,WSW,238,4.0,6.0,88,0.00,,---,0.05,11.00,VWS V14.01,2013-03-06 22:34:00,
2013-03-06 17:35:00,30.3,27.2,30.15,SW,236,0.0,6.0,88,0.00,,---,0.05,11.00,VWS V14.01,2013-03-06 22:35:00,
2013-03-06 17:36:00,30.3,27.2,30.15,SW,236,3.0,6.0,88,0.00,,---,0.05,11.00,VWS V14.01,2013-03-06 22:36:00,
2013-03-06 17:37:00,30.3,26.9,30.14,WSW,238,3.0,6.0,87,0.00,,---,0.05,12.00,VWS V14.01,2013-03-06 22:37:00,
2013-03-06 17:38:00,30.2,27.1,30.15,SW,236,8.0,11.0,88,0.00,,---,0.05,11.00,VWS V14.01,2013-03-06 22:38:00,
2013-03-06 17:39:00,30.3,27.2,30.15,WSW,238,4.0,11.0,88,0.00,,---,0.05,11.00,VWS V14.01,2013-03-06 22:39:00,
2013-03-06 17:40:00,30.2,27.1,30.15,WSW,238,4.0,7.0,88,0.00,,---,0.05,9.00,VWS V14.01,2013-03-06 22:40:00,
2013-03-06 17:41:00,30.2,27.1,30.15,WSW,237,5.0,7.0,88,0.00,,---,0.05,9.00,VWS V14.01,2013-03-06 22:41:00,
2013-03-06 17:42:00,30.3,27.2,30.15,WSW,238,0.0,5.0,88,0.00,,---,0.05,11.00,VWS V14.01,2013-03-06 22:42:00,
2013-03-06 17:43:00,30.2,27.1,30.15,WSW,238,3.0,7.0,88,0.00,,---,0.05,7.00,VWS V14.01,2013-03-06 22:43:00,
2013-03-06 17:44:00,30.2,27.1,30.15,WSW,238,3.0,7.0,88,0.00,,---,0.05,9.00,VWS V14.01,2013-03-06 22:44:00,
2013-03-06 17:45:00,30.2,27.1,30.15,WSW,238,2.0,8.0,88,0.00,,---,0.05,7.00,VWS V14.01,2013-03-06 22:45:00,
2013-03-06 17:46:00,30.2,27.1,30.15,WSW,238,4.0,8.0,88,0.00,,---,0.05,7.00,VWS V14.01,2013-03-06 22:46:00,
2013-03-06 17:47:00,30.3,27.2,30.15,WSW,240,5.0,7.0,88,0.00,,---,0.05,11.00,VWS V14.01,2013-03-06 22:47:00,
2013-03-06 17:48:00,30.2,27.1,30.16,WSW,238,2.0,8.0,88,0.00,,---,0.05,7.00,VWS V14.01,2013-03-06 22:48:00,
2013-03-06 17:49:00,30.2,27.1,30.16,WSW,238,5.0,8.0,88,0.00,,---,0.05,5.00,VWS V14.01,2013-03-06 22:49:00,
2013-03-06 17:50:00,30.2,27.1,30.16,WSW,238,5.0,6.0,88,0.00,,---,0.05,7.00,VWS V14.01,2013-03-06 22:50:00,
2013-03-06 17:51:00,30.2,27.1,30.16,WSW,238,4.0,6.0,88,0.00,,---,0.05,7.00,VWS V14.01,2013-03-06 22:51:00,
2013-03-06 17:52:00,30.2,27.1,30.15,WSW,238,1.0,7.0,88,0.00,,---,0.05,7.00,VWS V14.01,2013-03-06 22:52:00,
2013-03-06 17:53:00,30.2,27.1,30.16,WSW,237,2.0,7.0,88,0.00,,---,0.05,7.00,VWS V14.01,2013-03-06 22:53:00,
2013-03-06 17:54:00,30.2,27.1,30.16,SW,235,5.0,7.0,88,0.00,,---,0.05,5.00,VWS V14.01,2013-03-06 22:54:00,
2013-03-06 17:55:00,30.2,27.1,30.16,SW,235,0.0,7.0,88,0.00,,---,0.05,5.00,VWS V14.01,2013-03-06 22:55:00,
2013-03-06 17:56:00,30.2,27.1,30.16,SW,235,3.0,7.0,88,0.00,,---,0.05,5.00,VWS V14.01,2013-03-06 22:56:00,
2013-03-06 17:57:00,30.2,27.1,30.16,SW,235,5.0,7.0,88,0.00,,---,0.05,5.00,VWS V14.01,2013-03-06 22:57:00,
2013-03-06 17:58:00,30.2,27.1,30.16,WSW,238,3.0,8.0,88,0.00,,---,0.05,5.00,VWS V14.01,2013-03-06 22:58:00,
2013-03-06 17:59:00,30.2,27.1,30.16,SW,235,1.0,7.0,88,0.00,,---,0.05,5.00,VWS V14.01,2013-03-06 22:59:00,
2013-03-06 18:00:00,30.2,27.1,30.17,WSW,240,5.0,6.0,88,0.00,,---,0.05,5.00,VWS V14.01,2013-03-06 23:00:00,
2013-03-06 18:01:00,30.1,27.0,30.16,WSW,243,3.0,7.0,88,0.00,,---,0.05,5.00,VWS V14.01,2013-03-06 23:01:00,
2013-03-06 18:02:00,30.2,27.1,30.16,WSW,243,3.0,7.0,88,0.00,,---,0.05,5.00,VWS V14.01,2013-03-06 23:02:00,
2013-03-06 18:03:00,30.2,27.1,30.16,WSW,237,1.0,7.0,88,0.00,,---,0.05,5.00,VWS V14.01,2013-03-06 23:03:00,
2013-03-06 18:04:00,30.2,27.1,30.16,WSW,243,0.0,7.0,88,0.00,,---,0.05,0.00,VWS V14.01,2013-03-06 23:04:00,
2013-03-06 18:05:00,30.1,27.0,30.16,WSW,243,1.0,7.0,88,0.00,,---,0.05,0.00,VWS V14.01,2013-03-06 23:05:00,
2013-03-06 18:06:00,30.1,27.0,30.17,WSW,243,4.0,7.0,88,0.00,,---,0.05,0.00,VWS V14.01,2013-03-06 23:06:00,
2013-03-06 18:07:00,30.2,27.1,30.16,WSW,243,2.0,7.0,88,0.00,,---,0.05,0.00,VWS V14.01,2013-03-06 23:07:00,
2013-03-06 18:08:00,30.1,27.0,30.16,WSW,243,1.0,7.0,88,0.00,,---,0.05,0.00,VWS V14.01,2013-03-06 23:08:00,
2013-03-06 18:09:00,30.2,27.1,30.16,SW,235,3.0,7.0,88,0.00,,---,0.05,5.00,VWS V14.01,2013-03-06 23:09:00,
2013-03-06 18:10:00,30.1,27.0,30.16,WSW,243,4.0,6.0,88,0.00,,---,0.05,0.00,VWS V14.01,2013-03-06 23:10:00,
2013-03-06 18:11:00,30.1,27.0,30.16,WSW,243,2.0,6.0,88,0.00,,---,0.05,0.00,VWS V14.01,2013-03-06 23:11:00,
2013-03-06 18:12:00,30.1,27.0,30.16,WSW,243,2.0,6.0,88,0.00,,---,0.05,0.00,VWS V14.01,2013-03-06 23:12:00,
2013-03-06 18:13:00,30.1,27.0,30.17,WSW,243,3.0,6.0,88,0.00,,---,0.05,0.00,VWS V14.01,2013-03-06 23:13:00,
2013-03-06 18:14:00,30.1,27.0,30.16,WSW,243,3.0,7.0,88,0.00,,---,0.05,0.00,VWS V14.01,2013-03-06 23:14:00,
2013-03-06 18:15:00,30.1,27.3,30.16,WSW,243,4.0,6.0,89,0.00,,---,0.05,0.00,VWS V14.01,2013-03-06 23:15:00,
2013-03-06 18:16:00,30.1,27.3,30.17,WSW,243,3.0,6.0,89,0.00,,---,0.05,0.00,VWS V14.01,2013-03-06 23:16:00,
2013-03-06 18:17:00,30.1,27.3,30.17,WSW,243,2.0,6.0,89,0.00,,---,0.05,0.00,VWS V14.01,2013-03-06 23:17:00,
2013-03-06 18:18:00,30.1,27.3,30.17,WSW,240,0.0,6.0,89,0.00,,---,0.05,0.00,VWS V14.01,2013-03-06 23:18:00,
2013-03-06 18:19:00,30.1,27.0,30.16,WSW,243,2.0,2.0,88,0.00,,---,0.05,0.00,VWS V14.01,2013-03-06 23:19:00,
2013-03-06 18:20:00,30.1,27.3,30.17,WSW,240,3.0,4.0,89,0.00,,---,0.05,0.00,VWS V14.01,2013-03-06 23:20:00,
2013-03-06 18:21:00,30.1,27.3,30.17,WSW,240,3.0,4.0,89,0.00,,---,0.05,0.00,VWS V14.01,2013-03-06 23:21:00,
2013-03-06 18:22:00,30.1,27.3,30.17,WSW,240,4.0,6.0,89,0.00,,---,0.05,0.00,VWS V14.01,2013-03-06 23:22:00,
2013-03-06 18:23:00,30.1,27.3,30.17,WSW,240,3.0,6.0,89,0.00,,---,0.05,0.00,VWS V14.01,2013-03-06 23:23:00,
2013-03-06 18:24:00,30.1,27.3,30.16,WSW,243,3.0,6.0,89,0.00,,---,0.05,0.00,VWS V14.01,2013-03-06 23:24:00,
2013-03-06 18:25:00,30.1,27.3,30.17,WSW,242,2.0,6.0,89,0.00,,---,0.05,0.00,VWS V14.01,2013-03-06 23:25:00,
2013-03-06 18:26:00,30.1,27.3,30.17,WSW,238,1.0,7.0,89,0.00,,---,0.05,0.00,VWS V14.01,2013-03-06 23:26:00,
2013-03-06 18:27:00,30.1,27.3,30.17,WSW,239,4.0,7.0,89,0.00,,---,0.05,0.00,VWS V14.01,2013-03-06 23:27:00,
2013-03-06 18:28:00,30.1,27.3,30.17,SW,235,2.0,9.0,89,0.00,,---,0.05,0.00,VWS V14.01,2013-03-06 23:28:00,
2013-03-06 18:29:00,30.0,27.2,30.17,WSW,240,3.0,9.0,89,0.00,,---,0.05,0.00,VWS V14.01,2013-03-06 23:29:00,
2013-03-06 18:30:00,30.1,27.3,30.17,WSW,240,3.0,4.0,89,0.00,,---,0.05,0.00,VWS V14.01,2013-03-06 23:30:00,
2013-03-06 18:31:00,30.0,27.2,30.17,WSW,240,2.0,5.0,89,0.00,,---,0.05,0.00,VWS V14.01,2013-03-06 23:31:00,
2013-03-06 18:32:00,30.0,27.2,30.17,WSW,238,2.0,6.0,89,0.00,,---,0.05,0.00,VWS V14.01,2013-03-06 23:32:00,
2013-03-06 18:33:00,30.0,27.2,30.17,SW,235,7.0,7.0,89,0.00,,---,0.05,0.00,VWS V14.01,2013-03-06 23:33:00,
2013-03-06 18:34:00,30.0,27.2,30.17,SW,236,5.0,7.0,89,0.00,,---,0.05,0.00,VWS V14.01,2013-03-06 23:34:00,
2013-03-06 18:35:00,30.1,27.3,30.17,WSW,238,6.0,7.0,89,0.00,,---,0.05,0.00,VWS V14.01,2013-03-06 23:35:00,
2013-03-06 18:36:00,30.0,27.2,30.17,SW,236,4.0,10.0,89,0.00,,---,0.05,0.00,VWS V14.01,2013-03-06 23:36:00,
2013-03-06 18:37:00,30.0,27.2,30.17,WSW,246,2.0,10.0,89,0.00,,---,0.05,0.00,VWS V14.01,2013-03-06 23:37:00,
2013-03-06 18:38:00,30.0,27.2,30.17,WSW,245,4.0,10.0,89,0.00,,---,0.05,0.00,VWS V14.01,2013-03-06 23:38:00,
2013-03-06 18:39:00,30.0,27.2,30.17,WSW,245,3.0,10.0,89,0.00,,---,0.05,0.00,VWS V14.01,2013-03-06 23:39:00,
2013-03-06 18:40:00,30.0,27.2,30.17,WSW,240,4.0,5.0,89,0.00,,---,0.05,0.00,VWS V14.01,2013-03-06 23:40:00,
2013-03-06 18:41:00,30.0,27.2,30.17,WSW,240,2.0,10.0,89,0.00,,---,0.05,0.00,VWS V14.01,2013-03-06 23:41:00,
2013-03-06 18:42:00,30.0,27.2,30.17,SSW,206,8.0,10.0,89,0.00,,---,0.05,0.00,VWS V14.01,2013-03-06 23:42:00,
2013-03-06 18:43:00,30.0,27.2,30.17,WSW,244,6.0,10.0,89,0.00,,---,0.05,0.00,VWS V14.01,2013-03-06 23:43:00,
2013-03-06 18:44:00,30.0,27.2,30.17,WSW,238,4.0,10.0,89,0.00,,---,0.05,0.00,VWS V14.01,2013-03-06 23:44:00,
2013-03-06 18:45:00,30.0,27.2,30.17,WSW,244,4.0,10.0,89,0.00,,---,0.05,0.00,VWS V14.01,2013-03-06 23:45:00,
2013-03-06 18:46:00,30.0,27.2,30.17,WSW,241,4.0,10.0,89,0.00,,---,0.05,0.00,VWS V14.01,2013-03-06 23:46:00,
2013-03-06 18:47:00,29.9,27.1,30.17,WSW,248,4.0,10.0,89,0.00,,---,0.05,0.00,VWS V14.01,2013-03-06 23:47:00,
2013-03-06 18:48:00,29.9,27.1,30.17,WSW,248,3.0,10.0,89,0.00,,---,0.05,0.00,VWS V14.01,2013-03-06 23:48:00,
2013-03-06 18:49:00,30.0,27.2,30.17,WSW,248,3.0,10.0,89,0.00,,---,0.05,0.00,VWS V14.01,2013-03-06 23:49:00,
2013-03-06 18:50:00,30.0,27.2,30.17,WSW,247,4.0,9.0,89,0.00,,---,0.05,0.00,VWS V14.01,2013-03-06 23:50:00,
2013-03-06 18:51:00,30.0,27.2,30.17,WSW,240,2.0,10.0,89,0.00,,---,0.05,0.00,VWS V14.01,2013-03-06 23:51:00,
2013-03-06 18:52:00,30.0,27.2,30.17,WSW,239,4.0,9.0,89,0.00,,---,0.05,0.00,VWS V14.01,2013-03-06 23:52:00,
2013-03-06 18:53:00,29.9,27.3,30.17,WSW,238,3.0,9.0,90,0.00,,---,0.05,0.00,VWS V14.01,2013-03-06 23:53:00,
2013-03-06 18:54:00,29.9,27.3,30.17,WSW,238,2.0,9.0,90,0.00,,---,0.05,0.00,VWS V14.01,2013-03-06 23:54:00,
2013-03-06 18:55:00,29.9,27.3,30.17,WSW,238,1.0,9.0,90,0.00,,---,0.05,0.00,VWS V14.01,2013-03-06 23:55:00,
2013-03-06 18:56:00,30.0,27.2,30.17,WSW,248,4.0,10.0,89,0.00,,---,0.05,0.00,VWS V14.01,2013-03-06 23:56:00,
2013-03-06 18:57:00,29.9,27.3,30.17,WSW,243,2.0,9.0,90,0.00,,---,0.05,0.00,VWS V14.01,2013-03-06 23:57:00,
2013-03-06 18:58:00,29.9,27.3,30.17,WSW,243,4.0,9.0,90,0.00,,---,0.05,0.00,VWS V14.01,2013-03-06 23:58:00,
2013-03-06 18:59:00,29.9,27.3,30.17,WSW,243,5.0,9.0,90,0.00,,---,0.05,0.00,VWS V14.01,2013-03-06 23:59:00,
2013-03-06 19:00:00,29.9,27.3,30.17,SW,236,2.0,6.0,90,0.00,,---,0.05,0.00,VWS V14.01,2013-03-07 00:00:00,
2013-03-06 19:01:00,29.9,27.1,30.17,WSW,239,2.0,9.0,89,0.00,,---,0.05,0.00,VWS V14.01,2013-03-07 00:01:00,
2013-03-06 19:02:00,29.9,27.3,30.17,SW,236,2.0,6.0,90,0.00,,---,0.05,0.00,VWS V14.01,2013-03-07 00:02:00,
2013-03-06 19:03:00,29.9,27.3,30.17,SW,236,1.0,6.0,90,0.00,,---,0.05,0.00,VWS V14.01,2013-03-07 00:03:00,
2013-03-06 19:04:00,29.9,27.3,30.17,SW,236,6.0,6.0,90,0.00,,---,0.05,0.00,VWS V14.01,2013-03-07 00:04:00,
2013-03-06 19:05:00,29.9,27.3,30.17,SW,236,3.0,6.0,90,0.00,,---,0.05,0.00,VWS V14.01,2013-03-07 00:05:00,
2013-03-06 19:06:00,29.9,27.3,30.17,SW,236,2.0,6.0,90,0.00,,---,0.05,0.00,VWS V14.01,2013-03-07 00:06:00,
2013-03-06 19:07:00,29.9,27.3,30.17,WSW,243,3.0,9.0,90,0.00,,---,0.05,0.00,VWS V14.01,2013-03-07 00:07:00,
2013-03-06 19:08:00,29.9,27.3,30.17,SW,236,3.0,6.0,90,0.00,,---,0.05,0.00,VWS V14.01,2013-03-07 00:08:00,
2013-03-06 19:09:00,29.9,27.3,30.17,SW,236,3.0,6.0,90,0.00,,---,0.05,0.00,VWS V14.01,2013-03-07 00:09:00,
2013-03-06 19:10:00,29.9,27.3,30.17,SW,236,0.0,1.0,90,0.00,,---,0.05,0.00,VWS V14.01,2013-03-07 00:10:00,
2013-03-06 19:11:00,29.9,27.3,30.17,SW,236,2.0,5.0,90,0.00,,---,0.05,0.00,VWS V14.01,2013-03-07 00:11:00,
2013-03-06 19:12:00,29.9,27.3,30.17,SW,236,0.0,6.0,90,0.00,,---,0.05,0.00,VWS V14.01,2013-03-07 00:12:00,
2013-03-06 19:13:00,29.9,27.3,30.18,SW,236,1.0,5.0,90,0.00,,---,0.05,0.00,VWS V14.01,2013-03-07 00:13:00,
2013-03-06 19:14:00,29.9,27.3,30.18,WSW,240,2.0,5.0,90,0.00,,---,0.05,0.00,VWS V14.01,2013-03-07 00:14:00,
2013-03-06 19:15:00,29.9,27.3,30.18,WSW,240,0.0,5.0,90,0.00,,---,0.05,0.00,VWS V14.01,2013-03-07 00:15:00,
2013-03-06 19:16:00,29.9,27.3,30.18,WSW,239,0.0,5.0,90,0.00,,---,0.05,0.00,VWS V14.01,2013-03-07 00:16:00,
2013-03-06 19:17:00,29.9,27.3,30.18,WSW,239,0.0,5.0,90,0.00,,---,0.05,0.00,VWS V14.01,2013-03-07 00:17:00,
2013-03-06 19:18:00,29.9,27.3,30.17,SW,236,0.0,6.0,90,0.00,,---,0.05,0.00,VWS V14.01,2013-03-07 00:18:00,
2013-03-06 19:19:00,29.9,27.3,30.18,WSW,240,2.0,5.0,90,0.00,,---,0.05,0.00,VWS V14.01,2013-03-07 00:19:00,
2013-03-06 19:20:00,29.9,27.3,30.18,WSW,240,2.0,3.0,90,0.00,,---,0.05,0.00,VWS V14.01,2013-03-07 00:20:00,
2013-03-06 19:21:00,29.9,27.3,30.18,WSW,240,1.0,4.0,90,0.00,,---,0.05,0.00,VWS V14.01,2013-03-07 00:21:00,
2013-03-06 19:22:00,29.9,27.3,30.18,WSW,240,0.0,4.0,90,0.00,,---,0.05,0.00,VWS V14.01,2013-03-07 00:22:00,
2013-03-06 19:23:00,29.9,27.3,30.18,WSW,240,1.0,5.0,90,0.00,,---,0.05,0.00,VWS V14.01,2013-03-07 00:23:00,
2013-03-06 19:24:00,29.9,27.3,30.18,WSW,240,3.0,4.0,90,0.00,,---,0.05,0.00,VWS V14.01,2013-03-07 00:24:00,
2013-03-06 19:25:00,29.9,27.3,30.18,WSW,238,1.0,6.0,90,0.00,,---,0.05,0.00,VWS V14.01,2013-03-07 00:25:00,
2013-03-06 19:26:00,29.9,27.3,30.18,WSW,238,2.0,6.0,90,0.00,,---,0.05,0.00,VWS V14.01,2013-03-07 00:26:00,
2013-03-06 19:27:00,29.9,27.3,30.18,SW,236,2.0,7.0,90,0.00,,---,0.05,0.00,VWS V14.01,2013-03-07 00:27:00,
2013-03-06 19:28:00,29.9,27.3,30.18,WSW,240,3.0,5.0,90,0.00,,---,0.05,0.00,VWS V14.01,2013-03-07 00:28:00,
2013-03-06 19:29:00,29.9,27.3,30.18,SW,236,2.0,7.0,90,0.00,,---,0.05,0.00,VWS V14.01,2013-03-07 00:29:00,
2013-03-06 19:30:00,29.9,27.3,30.18,SW,236,3.0,4.0,90,0.00,,---,0.05,0.00,VWS V14.01,2013-03-07 00:30:00,
2013-03-06 19:31:00,29.9,27.3,30.18,WSW,237,3.0,7.0,90,0.00,,---,0.05,0.00,VWS V14.01,2013-03-07 00:31:00,
2013-03-06 19:32:00,29.9,27.3,30.18,WSW,241,5.0,7.0,90,0.00,,---,0.05,0.00,VWS V14.01,2013-03-07 00:32:00,
2013-03-06 19:33:00,29.9,27.3,30.19,WSW,240,3.0,7.0,90,0.00,,---,0.05,0.00,VWS V14.01,2013-03-07 00:33:00,
2013-03-06 19:34:00,29.9,27.3,30.18,WSW,238,5.0,5.0,90,0.00,,---,0.05,0.00,VWS V14.01,2013-03-07 00:34:00,
2013-03-06 19:35:00,29.9,27.3,30.19,WSW,240,3.0,7.0,90,0.00,,---,0.05,0.00,VWS V14.01,2013-03-07 00:35:00,
2013-03-06 19:36:00,29.9,27.3,30.19,WSW,240,2.0,7.0,90,0.00,,---,0.05,0.00,VWS V14.01,2013-03-07 00:36:00,
2013-03-06 19:37:00,29.9,27.3,30.19,WSW,240,1.0,7.0,90,0.00,,---,0.05,0.00,VWS V14.01,2013-03-07 00:37:00,
2013-03-06 19:38:00,29.9,27.3,30.19,WSW,240,3.0,7.0,90,0.00,,---,0.05,0.00,VWS V14.01,2013-03-07 00:38:00,
2013-03-06 19:39:00,29.9,27.3,30.18,SW,236,3.0,7.0,90,0.00,,---,0.05,0.00,VWS V14.01,2013-03-07 00:39:00,
2013-03-06 19:40:00,29.9,27.3,30.19,WSW,240,1.0,2.0,90,0.00,,---,0.05,0.00,VWS V14.01,2013-03-07 00:40:00,
2013-03-06 19:41:00,29.9,27.3,30.19,WSW,242,0.0,5.0,90,0.00,,---,0.05,0.00,VWS V14.01,2013-03-07 00:41:00,
2013-03-06 19:42:00,29.9,27.3,30.19,WSW,242,3.0,5.0,90,0.00,,---,0.05,0.00,VWS V14.01,2013-03-07 00:42:00,
2013-03-06 19:43:00,29.9,27.3,30.19,WSW,242,2.0,5.0,90,0.00,,---,0.05,0.00,VWS V14.01,2013-03-07 00:43:00,
2013-03-06 19:44:00,29.9,27.3,30.19,WSW,240,2.0,7.0,90,0.00,,---,0.05,0.00,VWS V14.01,2013-03-07 00:44:00,
2013-03-06 19:45:00,29.9,27.3,30.19,WSW,242,3.0,5.0,90,0.00,,---,0.05,0.00,VWS V14.01,2013-03-07 00:45:00,
2013-03-06 19:46:00,29.9,27.3,30.19,WSW,242,1.0,5.0,90,0.00,,---,0.05,0.00,VWS V14.01,2013-03-07 00:46:00,
2013-03-06 19:47:00,29.9,27.3,30.19,WSW,242,0.0,5.0,90,0.00,,---,0.05,0.00,VWS V14.01,2013-03-07 00:47:00,
2013-03-06 19:48:00,29.9,27.3,30.19,WSW,242,3.0,5.0,90,0.00,,---,0.05,0.00,VWS V14.01,2013-03-07 00:48:00,
2013-03-06 19:49:00,29.9,27.3,30.19,WSW,240,2.0,2.0,90,0.00,,---,0.05,0.00,VWS V14.01,2013-03-07 00:49:00,
2013-03-06 19:50:00,29.9,27.3,30.19,WSW,242,1.0,4.0,90,0.00,,---,0.05,0.00,VWS V14.01,2013-03-07 00:50:00,
2013-03-06 19:51:00,29.9,27.3,30.19,WSW,242,6.0,10.0,90,0.00,,---,0.05,0.00,VWS V14.01,2013-03-07 00:51:00,
2013-03-06 19:52:00,29.9,27.3,30.19,WSW,240,6.0,10.0,90,0.00,,---,0.05,0.00,VWS V14.01,2013-03-07 00:52:00,
2013-03-06 19:53:00,29.9,27.3,30.19,WSW,240,5.0,10.0,90,0.00,,---,0.05,0.00,VWS V14.01,2013-03-07 00:53:00,
2013-03-06 19:54:00,29.9,27.3,30.19,WSW,242,3.0,5.0,90,0.00,,---,0.05,0.00,VWS V14.01,2013-03-07 00:54:00,
2013-03-06 19:55:00,29.9,27.3,30.19,WSW,240,4.0,10.0,90,0.00,,---,0.05,0.00,VWS V14.01,2013-03-07 00:55:00,
2013-03-06 19:56:00,29.9,27.3,30.19,WSW,241,6.0,10.0,90,0.00,,---,0.05,0.00,VWS V14.01,2013-03-07 00:56:00,
2013-03-06 19:57:00,29.9,27.3,30.19,SW,234,6.0,10.0,90,0.00,,---,0.05,0.00,VWS V14.01,2013-03-07 00:57:00,
2013-03-06 19:58:00,29.9,27.3,30.19,SW,236,2.0,10.0,90,0.00,,---,0.05,0.00,VWS V14.01,2013-03-07 00:58:00,
2013-03-06 19:59:00,29.9,27.3,30.19,WSW,242,3.0,3.0,90,0.00,,---,0.05,0.00,VWS V14.01,2013-03-07 00:59:00,
2013-03-06 20:00:00,29.9,27.3,30.19,SW,236,3.0,3.0,90,0.00,,---,0.05,0.00,VWS V14.01,2013-03-07 01:00:00,
2013-03-06 20:01:00,29.9,27.3,30.19,SW,236,3.0,4.0,90,0.00,,---,0.05,0.00,VWS V14.01,2013-03-07 01:01:00,
2013-03-06 20:02:00,29.9,27.3,30.19,WSW,237,3.0,4.0,90,0.00,,---,0.05,0.00,VWS V14.01,2013-03-07 01:02:00,
2013-03-06 20:03:00,29.9,27.3,30.19,WSW,241,3.0,12.0,90,0.00,,---,0.05,0.00,VWS V14.01,2013-03-07 01:03:00,
2013-03-06 20:04:00,29.8,27.2,30.19,WSW,241,0.0,12.0,90,0.00,,---,0.05,0.00,VWS V14.01,2013-03-07 01:04:00,
2013-03-06 20:05:00,29.9,27.3,30.19,WSW,243,9.0,10.0,90,0.00,,---,0.05,0.00,VWS V14.01,2013-03-07 01:05:00,
2013-03-06 20:06:00,29.9,27.3,30.19,WSW,239,3.0,12.0,90,0.00,,---,0.05,0.00,VWS V14.01,2013-03-07 01:06:00,
2013-03-06 20:07:00,29.9,27.3,30.19,WSW,239,4.0,12.0,90,0.00,,---,0.05,0.00,VWS V14.01,2013-03-07 01:07:00,
2013-03-06 20:08:00,29.9,27.3,30.19,WSW,239,1.0,12.0,90,0.00,,---,0.05,0.00,VWS V14.01,2013-03-07 01:08:00,
2013-03-06 20:09:00,29.9,27.3,30.19,WSW,240,2.0,12.0,90,0.00,,---,0.05,0.00,VWS V14.01,2013-03-07 01:09:00,
2013-03-06 20:10:00,29.9,27.3,30.19,SW,236,3.0,4.0,90,0.00,,---,0.05,0.00,VWS V14.01,2013-03-07 01:10:00,
2013-03-06 20:11:00,29.8,27.2,30.19,WSW,250,3.0,6.0,90,0.00,,---,0.05,0.00,VWS V14.01,2013-03-07 01:11:00,
2013-03-06 20:12:00,29.9,27.3,30.19,WSW,250,0.0,6.0,90,0.00,,---,0.05,0.00,VWS V14.01,2013-03-07 01:12:00,
2013-03-06 20:13:00,29.9,27.3,30.20,WSW,250,1.0,6.0,90,0.00,,---,0.05,0.00,VWS V14.01,2013-03-07 01:13:00,
2013-03-06 20:14:00,29.9,27.3,30.19,WSW,250,0.0,6.0,90,0.00,,---,0.05,0.00,VWS V14.01,2013-03-07 01:14:00,
2013-03-06 20:15:00,29.9,27.3,30.19,WSW,250,2.0,6.0,90,0.00,,---,0.05,0.00,VWS V14.01,2013-03-07 01:15:00,
2013-03-06 20:16:00,29.8,27.2,30.19,WSW,239,2.0,12.0,90,0.00,,---,0.05,0.00,VWS V14.01,2013-03-07 01:16:00,
2013-03-06 20:17:00,29.9,27.3,30.20,WSW,250,0.0,6.0,90,0.00,,---,0.05,0.00,VWS V14.01,2013-03-07 01:17:00,
2013-03-06 20:18:00,29.8,27.2,30.20,WSW,250,2.0,6.0,90,0.00,,---,0.05,0.00,VWS V14.01,2013-03-07 01:18:00,
2013-03-06 20:19:00,29.8,27.2,30.20,WSW,250,2.0,6.0,90,0.00,,---,0.05,0.00,VWS V14.01,2013-03-07 01:19:00,
2013-03-06 20:20:00,29.8,27.2,30.20,WSW,250,3.0,3.0,90,0.00,,---,0.05,0.00,VWS V14.01,2013-03-07 01:20:00,
2013-03-06 20:21:00,29.8,27.2,30.19,WSW,250,0.0,6.0,90,0.00,,---,0.05,0.00,VWS V14.01,2013-03-07 01:21:00,
2013-03-06 20:22:00,29.8,27.2,30.20,WSW,250,5.0,5.0,90,0.00,,---,0.05,0.00,VWS V14.01,2013-03-07 01:22:00,
2013-03-06 20:23:00,29.8,27.2,30.20,West,261,2.0,5.0,90,0.00,,---,0.05,0.00,VWS V14.01,2013-03-07 01:23:00,
2013-03-06 20:24:00,29.9,27.3,30.20,West,261,1.0,5.0,90,0.00,,---,0.05,0.00,VWS V14.01,2013-03-07 01:24:00,
2013-03-06 20:25:00,29.8,27.2,30.20,WSW,254,5.0,8.0,90,0.00,,---,0.05,0.00,VWS V14.01,2013-03-07 01:25:00,
2013-03-06 20:26:00,29.9,27.3,30.20,WSW,250,4.0,6.0,90,0.00,,---,0.05,0.00,VWS V14.01,2013-03-07 01:26:00,
2013-03-06 20:27:00,29.8,27.2,30.20,WSW,240,4.0,10.0,90,0.00,,---,0.05,0.00,VWS V14.01,2013-03-07 01:27:00,
2013-03-06 20:28:00,29.8,27.2,30.20,WSW,241,2.0,10.0,90,0.00,,---,0.05,0.00,VWS V14.01,2013-03-07 01:28:00,
2013-03-06 20:29:00,29.8,27.2,30.20,WSW,240,3.0,10.0,90,0.00,,---,0.05,0.00,VWS V14.01,2013-03-07 01:29:00,
2013-03-06 20:30:00,29.8,27.2,30.20,WSW,240,5.0,5.0,90,0.00,,---,0.05,0.00,VWS V14.01,2013-03-07 01:30:00,
2013-03-06 20:31:00,29.8,27.2,30.20,WSW,250,4.0,5.0,90,0.00,,---,0.05,0.00,VWS V14.01,2013-03-07 01:31:00,
2013-03-06 20:32:00,29.9,27.6,30.20,SW,234,4.0,7.0,91,0.00,,---,0.05,0.00,VWS V14.01,2013-03-07 01:32:00,
2013-03-06 20:33:00,29.8,27.5,30.20,SW,234,1.0,7.0,91,0.00,,---,0.05,0.00,VWS V14.01,2013-03-07 01:33:00,
2013-03-06 20:34:00,29.8,27.5,30.20,WSW,237,4.0,7.0,91,0.00,,---,0.05,0.00,VWS V14.01,2013-03-07 01:34:00,
2013-03-06 20:35:00,29.9,27.6,30.20,SW,235,3.0,7.0,91,0.00,,---,0.05,0.00,VWS V14.01,2013-03-07 01:35:00,
2013-03-06 20:36:00,29.9,27.6,30.20,SW,236,1.0,7.0,91,0.00,,---,0.05,0.00,VWS V14.01,2013-03-07 01:36:00,
2013-03-06 20:37:00,29.8,27.2,30.20,WSW,240,6.0,10.0,90,0.00,,---,0.05,0.00,VWS V14.01,2013-03-07 01:37:00,
2013-03-06 20:38:00,29.8,27.5,30.20,SW,234,2.0,7.0,91,0.00,,---,0.05,0.00,VWS V14.01,2013-03-07 01:38:00,
2013-03-06 20:39:00,29.8,27.5,30.20,SW,234,0.0,7.0,91,0.00,,---,0.05,0.00,VWS V14.01,2013-03-07 01:39:00,
2013-03-06 20:40:00,29.9,27.6,30.20,SW,234,3.0,3.0,91,0.00,,---,0.05,0.00,VWS V14.01,2013-03-07 01:40:00,
2013-03-06 20:41:00,29.9,27.6,30.21,SW,236,5.0,6.0,91,0.00,,---,0.05,0.00,VWS V14.01,2013-03-07 01:41:00,
2013-03-06 20:42:00,29.8,27.5,30.20,SW,234,0.0,7.0,91,0.00,,---,0.05,0.00,VWS V14.01,2013-03-07 01:42:00,
2013-03-06 20:43:00,29.9,27.6,30.20,WSW,238,5.0,6.0,91,0.00,,---,0.05,0.00,VWS V14.01,2013-03-07 01:43:00,
2013-03-06 20:44:00,29.8,27.5,30.21,WSW,243,5.0,10.0,91,0.00,,---,0.05,0.00,VWS V14.01,2013-03-07 01:44:00,
2013-03-06 20:45:00,29.8,27.5,30.20,WSW,252,0.0,10.0,91,0.00,,---,0.05,0.00,VWS V14.01,2013-03-07 01:45:00,
2013-03-06 20:46:00,29.9,27.6,30.20,WSW,252,1.0,10.0,91,0.00,,---,0.05,0.00,VWS V14.01,2013-03-07 01:46:00,
2013-03-06 20:47:00,29.8,27.5,30.20,SW,236,0.0,7.0,91,0.00,,---,0.05,0.00,VWS V14.01,2013-03-07 01:47:00,
2013-03-06 20:48:00,29.9,27.6,30.20,WSW,252,4.0,10.0,91,0.00,,---,0.05,0.00,VWS V14.01,2013-03-07 01:48:00,
2013-03-06 20:49:00,29.8,27.5,30.20,WSW,252,3.0,10.0,91,0.00,,---,0.05,0.00,VWS V14.01,2013-03-07 01:49:00,
2013-03-06 20:50:00,29.9,27.6,30.21,WSW,252,4.0,4.0,91,0.00,,---,0.05,0.00,VWS V14.01,2013-03-07 01:50:00,
2013-03-06 20:51:00,29.8,27.5,30.21,WSW,252,1.0,5.0,91,0.00,,---,0.05,0.00,VWS V14.01,2013-03-07 01:51:00,
2013-03-06 20:52:00,29.9,27.6,30.21,WSW,252,5.0,5.0,91,0.00,,---,0.05,0.00,VWS V14.01,2013-03-07 01:52:00,
2013-03-06 20:53:00,29.8,27.5,30.20,SW,234,7.0,7.0,91,0.00,,---,0.05,0.00,VWS V14.01,2013-03-07 01:53:00,
2013-03-06 20:54:00,29.9,27.6,30.21,WSW,252,0.0,5.0,91,0.00,,---,0.05,0.00,VWS V14.01,2013-03-07 01:54:00,
2013-03-06 20:55:00,29.9,27.6,30.21,WSW,252,3.0,6.0,91,0.00,,---,0.05,0.00,VWS V14.01,2013-03-07 01:55:00,
2013-03-06 20:56:00,29.9,27.6,30.21,WSW,252,1.0,6.0,91,0.00,,---,0.05,0.00,VWS V14.01,2013-03-07 01:56:00,
2013-03-06 20:57:00,29.8,27.5,30.21,WSW,252,3.0,7.0,91,0.00,,---,0.05,0.00,VWS V14.01,2013-03-07 01:57:00,
2013-03-06 20:58:00,29.9,27.6,30.20,WSW,252,4.0,10.0,91,0.00,,---,0.05,0.00,VWS V14.01,2013-03-07 01:58:00,
2013-03-06 20:59:00,29.9,27.6,30.21,WSW,245,5.0,7.0,91,0.00,,---,0.05,0.00,VWS V14.01,2013-03-07 01:59:00,
2013-03-06 21:00:00,29.9,27.6,30.21,WSW,244,0.0,3.0,91,0.00,,---,0.05,0.00,VWS V14.01,2013-03-07 02:00:00,
2013-03-06 21:01:00,29.9,27.6,30.21,WSW,244,1.0,5.0,91,0.00,,---,0.05,0.00,VWS V14.01,2013-03-07 02:01:00,
2013-03-06 21:02:00,29.9,27.6,30.21,WSW,244,0.0,5.0,91,0.00,,---,0.05,0.00,VWS V14.01,2013-03-07 02:02:00,
2013-03-06 21:03:00,29.9,27.6,30.21,WSW,252,0.0,5.0,91,0.00,,---,0.05,0.00,VWS V14.01,2013-03-07 02:03:00,
2013-03-06 21:04:00,29.8,27.5,30.21,WSW,244,3.0,5.0,91,0.00,,---,0.05,0.00,VWS V14.01,2013-03-07 02:04:00,
2013-03-06 21:05:00,29.9,27.6,30.21,WSW,244,3.0,5.0,91,0.00,,---,0.05,0.00,VWS V14.01,2013-03-07 02:05:00,
2013-03-06 21:06:00,29.9,27.6,30.21,WSW,244,0.0,5.0,91,0.00,,---,0.05,0.00,VWS V14.01,2013-03-07 02:06:00,
2013-03-06 21:07:00,29.8,27.5,30.21,WSW,244,0.0,5.0,91,0.00,,---,0.05,0.00,VWS V14.01,2013-03-07 02:07:00,
2013-03-06 21:08:00,29.8,27.5,30.21,WSW,244,1.0,5.0,91,0.00,,---,0.05,0.00,VWS V14.01,2013-03-07 02:08:00,
2013-03-06 21:09:00,29.9,27.6,30.21,WSW,245,3.0,7.0,91,0.00,,---,0.05,0.00,VWS V14.01,2013-03-07 02:09:00,
2013-03-06 21:10:00,29.8,27.5,30.21,WSW,244,0.0,0.0,91,0.00,,---,0.05,0.00,VWS V14.01,2013-03-07 02:10:00,
2013-03-06 21:11:00,29.8,27.5,30.21,WSW,244,0.0,1.0,91,0.00,,---,0.05,0.00,VWS V14.01,2013-03-07 02:11:00,
2013-03-06 21:12:00,29.8,27.5,30.21,WSW,244,6.0,6.0,91,0.00,,---,0.05,0.00,VWS V14.01,2013-03-07 02:12:00,
2013-03-06 21:13:00,29.8,27.5,30.21,WSW,244,1.0,6.0,91,0.00,,---,0.05,0.00,VWS V14.01,2013-03-07 02:13:00,
2013-03-06 21:14:00,29.9,27.6,30.21,WSW,244,1.0,5.0,91,0.00,,---,0.05,0.00,VWS V14.01,2013-03-07 02:14:00,
2013-03-06 21:15:00,29.8,27.5,30.22,WSW,244,0.0,6.0,91,0.00,,---,0.05,0.00,VWS V14.01,2013-03-07 02:15:00,
2013-03-06 21:16:00,29.8,27.5,30.22,WSW,244,0.0,6.0,91,0.00,,---,0.05,0.00,VWS V14.01,2013-03-07 02:16:00,
2013-03-06 21:17:00,29.8,27.5,30.22,WSW,244,3.0,6.0,91,0.00,,---,0.05,0.00,VWS V14.01,2013-03-07 02:17:00,
2013-03-06 21:18:00,29.8,27.5,30.22,WSW,244,0.0,6.0,91,0.00,,---,0.05,0.00,VWS V14.01,2013-03-07 02:18:00,
2013-03-06 21:19:00,29.8,27.5,30.21,WSW,244,0.0,0.0,91,0.00,,---,0.05,0.00,VWS V14.01,2013-03-07 02:19:00,
2013-03-06 21:20:00,29.8,27.5,30.22,WSW,244,3.0,4.0,91,0.00,,---,0.05,0.00,VWS V14.01,2013-03-07 02:20:00,
2013-03-06 21:21:00,29.8,27.5,30.22,WSW,244,4.0,5.0,91,0.00,,---,0.05,0.00,VWS V14.01,2013-03-07 02:21:00,
2013-03-06 21:22:00,29.8,27.5,30.22,WSW,244,0.0,5.0,91,0.00,,---,0.05,0.00,VWS V14.01,2013-03-07 02:22:00,
2013-03-06 21:23:00,29.8,27.5,30.22,WSW,244,1.0,5.0,91,0.00,,---,0.05,0.00,VWS V14.01,2013-03-07 02:23:00,
2013-03-06 21:24:00,29.8,27.5,30.22,WSW,244,1.0,6.0,91,0.00,,---,0.05,0.00,VWS V14.01,2013-03-07 02:24:00,
2013-03-06 21:25:00,29.8,27.5,30.22,WSW,244,1.0,5.0,91,0.00,,---,0.05,0.00,VWS V14.01,2013-03-07 02:25:00,
2013-03-06 21:26:00,29.8,27.5,30.22,WSW,244,1.0,5.0,91,0.00,,---,0.05,0.00,VWS V14.01,2013-03-07 02:26:00,
2013-03-06 21:27:00,29.8,27.5,30.22,WSW,244,3.0,5.0,91,0.00,,---,0.05,0.00,VWS V14.01,2013-03-07 02:27:00,
2013-03-06 21:28:00,29.8,27.5,30.22,WSW,244,0.0,5.0,91,0.00,,---,0.05,0.00,VWS V14.01,2013-03-07 02:28:00,
2013-03-06 21:29:00,29.8,27.5,30.22,WSW,244,1.0,5.0,91,0.00,,---,0.05,0.00,VWS V14.01,2013-03-07 02:29:00,
2013-03-06 21:30:00,29.8,27.5,30.22,WSW,244,1.0,4.0,91,0.00,,---,0.05,0.00,VWS V14.01,2013-03-07 02:30:00,
2013-03-06 21:31:00,29.8,27.5,30.22,WSW,244,3.0,3.0,91,0.00,,---,0.05,0.00,VWS V14.01,2013-03-07 02:31:00,
2013-03-06 21:32:00,29.8,27.5,30.22,WSW,244,3.0,4.0,91,0.00,,---,0.05,0.00,VWS V14.01,2013-03-07 02:32:00,
2013-03-06 21:33:00,29.8,27.5,30.22,WSW,244,4.0,4.0,91,0.00,,---,0.05,0.00,VWS V14.01,2013-03-07 02:33:00,
2013-03-06 21:34:00,29.8,27.5,30.22,WSW,244,1.0,5.0,91,0.00,,---,0.05,0.00,VWS V14.01,2013-03-07 02:34:00,
2013-03-06 21:35:00,29.8,27.5,30.22,WSW,244,3.0,5.0,91,0.00,,---,0.05,0.00,VWS V14.01,2013-03-07 02:35:00,
2013-03-06 21:36:00,29.8,27.5,30.22,WSW,244,0.0,5.0,91,0.00,,---,0.05,0.00,VWS V14.01,2013-03-07 02:36:00,
2013-03-06 21:37:00,29.8,27.5,30.22,WSW,244,0.0,5.0,91,0.00,,---,0.05,0.00,VWS V14.01,2013-03-07 02:37:00,
2013-03-06 21:38:00,29.8,27.5,30.22,WSW,244,4.0,5.0,91,0.00,,---,0.05,0.00,VWS V14.01,2013-03-07 02:38:00,
2013-03-06 21:39:00,29.8,27.5,30.22,WSW,244,0.0,5.0,91,0.00,,---,0.05,0.00,VWS V14.01,2013-03-07 02:39:00,
2013-03-06 21:40:00,29.8,27.5,30.22,WSW,244,0.0,1.0,91,0.00,,---,0.05,0.00,VWS V14.01,2013-03-07 02:40:00,
2013-03-06 21:41:00,29.8,27.5,30.22,WSW,244,0.0,2.0,91,0.00,,---,0.05,0.00,VWS V14.01,2013-03-07 02:41:00,
2013-03-06 21:42:00,29.8,27.5,30.22,WSW,244,4.0,4.0,91,0.00,,---,0.05,0.00,VWS V14.01,2013-03-07 02:42:00,
2013-03-06 21:43:00,29.8,27.5,30.22,WSW,244,1.0,7.0,91,0.00,,---,0.05,0.00,VWS V14.01,2013-03-07 02:43:00,
2013-03-06 21:44:00,29.8,27.5,30.22,WSW,244,0.0,7.0,91,0.00,,---,0.05,0.00,VWS V14.01,2013-03-07 02:44:00,
2013-03-06 21:45:00,29.8,27.5,30.22,WSW,244,3.0,7.0,91,0.00,,---,0.05,0.00,VWS V14.01,2013-03-07 02:45:00,
2013-03-06 21:46:00,29.8,27.5,30.22,WSW,244,0.0,5.0,91,0.00,,---,0.05,0.00,VWS V14.01,2013-03-07 02:46:00,
2013-03-06 21:47:00,29.8,27.5,30.22,WSW,244,1.0,7.0,91,0.00,,---,0.05,0.00,VWS V14.01,2013-03-07 02:47:00,
2013-03-06 21:48:00,29.8,27.5,30.22,WSW,244,1.0,7.0,91,0.00,,---,0.05,0.00,VWS V14.01,2013-03-07 02:48:00,
2013-03-06 21:49:00,29.8,27.5,30.22,WSW,244,3.0,7.0,91,0.00,,---,0.05,0.00,VWS V14.01,2013-03-07 02:49:00,
2013-03-06 21:50:00,29.8,27.5,30.22,WSW,244,2.0,5.0,91,0.00,,---,0.05,0.00,VWS V14.01,2013-03-07 02:50:00,
2013-03-06 21:51:00,29.8,27.5,30.22,WSW,244,1.0,2.0,91,0.00,,---,0.05,0.00,VWS V14.01,2013-03-07 02:51:00,
2013-03-06 21:52:00,29.8,27.5,30.22,WSW,244,3.0,5.0,91,0.00,,---,0.05,0.00,VWS V14.01,2013-03-07 02:52:00,
2013-03-06 21:53:00,29.8,27.5,30.22,WSW,244,2.0,5.0,91,0.00,,---,0.05,0.00,VWS V14.01,2013-03-07 02:53:00,
2013-03-06 21:54:00,29.8,27.5,30.22,WSW,244,2.0,5.0,91,0.00,,---,0.05,0.00,VWS V14.01,2013-03-07 02:54:00,
2013-03-06 21:55:00,29.8,27.5,30.22,WSW,244,3.0,5.0,91,0.00,,---,0.05,0.00,VWS V14.01,2013-03-07 02:55:00,
2013-03-06 21:56:00,29.8,27.5,30.22,WSW,244,4.0,7.0,91,0.00,,---,0.05,0.00,VWS V14.01,2013-03-07 02:56:00,
2013-03-06 21:57:00,29.8,27.5,30.22,WSW,244,3.0,5.0,91,0.00,,---,0.05,0.00,VWS V14.01,2013-03-07 02:57:00,
2013-03-06 21:58:00,29.8,27.2,30.22,WSW,244,3.0,5.0,90,0.00,,---,0.05,0.00,VWS V14.01,2013-03-07 02:58:00,
2013-03-06 21:59:00,29.8,27.2,30.22,WSW,244,1.0,5.0,90,0.00,,---,0.05,0.00,VWS V14.01,2013-03-07 02:59:00,
2013-03-06 22:00:00,29.8,27.2,30.22,WSW,244,1.0,3.0,90,0.00,,---,0.05,0.00,VWS V14.01,2013-03-07 03:00:00,
2013-03-06 22:01:00,29.8,27.5,30.22,WSW,244,0.0,5.0,91,0.00,,---,0.05,0.00,VWS V14.01,2013-03-07 03:01:00,
2013-03-06 22:02:00,29.8,27.2,30.22,WSW,244,1.0,4.0,90,0.00,,---,0.05,0.00,VWS V14.01,2013-03-07 03:02:00,
2013-03-06 22:03:00,29.8,27.2,30.22,WSW,244,3.0,4.0,90,0.00,,---,0.05,0.00,VWS V14.01,2013-03-07 03:03:00,
2013-03-06 22:04:00,29.8,27.2,30.22,WSW,244,2.0,4.0,90,0.00,,---,0.05,0.00,VWS V14.01,2013-03-07 03:04:00,
2013-03-06 22:05:00,29.8,27.2,30.22,WSW,244,3.0,4.0,90,0.00,,---,0.05,0.00,VWS V14.01,2013-03-07 03:05:00,
2013-03-06 22:06:00,29.8,27.5,30.22,WSW,244,4.0,5.0,91,0.00,,---,0.05,0.00,VWS V14.01,2013-03-07 03:06:00,
2013-03-06 22:07:00,29.8,27.2,30.22,WSW,244,3.0,4.0,90,0.00,,---,0.05,0.00,VWS V14.01,2013-03-07 03:07:00,
2013-03-06 22:08:00,29.8,27.2,30.22,WSW,244,4.0,4.0,90,0.00,,---,0.05,0.00,VWS V14.01,2013-03-07 03:08:00,
2013-03-06 22:09:00,29.8,27.2,30.22,WSW,244,2.0,4.0,90,0.00,,---,0.05,0.00,VWS V14.01,2013-03-07 03:09:00,
2013-03-06 22:10:00,29.9,27.3,30.22,WSW,244,2.0,2.0,90,0.00,,---,0.05,0.00,VWS V14.01,2013-03-07 03:10:00,
2013-03-06 22:11:00,29.9,27.3,30.22,WSW,244,2.0,2.0,90,0.00,,---,0.05,0.00,VWS V14.01,2013-03-07 03:11:00,
2013-03-06 22:12:00,29.8,27.2,30.22,WSW,244,2.0,4.0,90,0.00,,---,0.05,0.00,VWS V14.01,2013-03-07 03:12:00,
2013-03-06 22:13:00,29.9,27.3,30.22,WSW,244,0.0,3.0,90,0.00,,---,0.05,0.00,VWS V14.01,2013-03-07 03:13:00,
2013-03-06 22:14:00,29.9,27.3,30.22,WSW,244,3.0,3.0,90,0.00,,---,0.05,0.00,VWS V14.01,2013-03-07 03:14:00,
2013-03-06 22:15:00,29.8,27.5,30.22,WSW,244,0.0,3.0,91,0.00,,---,0.05,0.00,VWS V14.01,2013-03-07 03:15:00,
2013-03-06 22:16:00,29.9,27.6,30.22,WSW,244,2.0,4.0,91,0.00,,---,0.05,0.00,VWS V14.01,2013-03-07 03:16:00,
2013-03-06 22:17:00,29.8,27.2,30.22,WSW,244,2.0,4.0,90,0.00,,---,0.05,0.00,VWS V14.01,2013-03-07 03:17:00,
2013-03-06 22:18:00,29.8,27.5,30.22,WSW,244,4.0,5.0,91,0.00,,---,0.05,0.00,VWS V14.01,2013-03-07 03:18:00,
2013-03-06 22:19:00,29.8,27.2,30.22,WSW,244,2.0,5.0,90,0.00,,---,0.05,0.00,VWS V14.01,2013-03-07 03:19:00,
2013-03-06 22:20:00,29.8,27.2,30.22,WSW,244,2.0,3.0,90,0.00,,---,0.05,0.00,VWS V14.01,2013-03-07 03:20:00,
2013-03-06 22:21:00,29.8,27.2,30.22,WSW,244,0.0,3.0,90,0.00,,---,0.05,0.00,VWS V14.01,2013-03-07 03:21:00,
2013-03-06 22:22:00,29.9,27.6,30.22,WSW,244,0.0,3.0,91,0.00,,---,0.05,0.00,VWS V14.01,2013-03-07 03:22:00,
2013-03-06 22:23:00,29.8,27.2,30.22,WSW,244,1.0,3.0,90,0.00,,---,0.05,0.00,VWS V14.01,2013-03-07 03:23:00,
2013-03-06 22:24:00,29.9,27.3,30.22,WSW,244,0.0,4.0,90,0.00,,---,0.05,0.00,VWS V14.01,2013-03-07 03:24:00,
2013-03-06 22:25:00,29.8,27.2,30.22,WSW,244,2.0,4.0,90,0.00,,---,0.05,0.00,VWS V14.01,2013-03-07 03:25:00,
2013-03-06 22:26:00,29.8,27.2,30.22,WSW,244,4.0,4.0,90,0.00,,---,0.05,0.00,VWS V14.01,2013-03-07 03:26:00,
2013-03-06 22:27:00,29.8,27.5,30.22,WSW,244,1.0,5.0,91,0.00,,---,0.05,0.00,VWS V14.01,2013-03-07 03:27:00,
2013-03-06 22:28:00,29.9,27.3,30.22,WSW,244,0.0,5.0,90,0.00,,---,0.05,0.00,VWS V14.01,2013-03-07 03:28:00,
2013-03-06 22:29:00,29.9,27.3,30.22,WSW,244,1.0,5.0,90,0.00,,---,0.05,0.00,VWS V14.01,2013-03-07 03:29:00,
2013-03-06 22:30:00,29.8,27.2,30.22,WSW,244,3.0,4.0,90,0.00,,---,0.05,0.00,VWS V14.01,2013-03-07 03:30:00,
2013-03-06 22:31:00,29.8,27.2,30.22,WSW,244,0.0,4.0,90,0.00,,---,0.05,0.00,VWS V14.01,2013-03-07 03:31:00,
2013-03-06 22:32:00,29.9,27.3,30.22,WSW,245,5.0,5.0,90,0.00,,---,0.05,0.00,VWS V14.01,2013-03-07 03:32:00,
2013-03-06 22:33:00,29.8,27.2,30.22,WSW,244,3.0,4.0,90,0.00,,---,0.05,0.00,VWS V14.01,2013-03-07 03:33:00,
2013-03-06 22:34:00,29.8,27.2,30.22,WSW,244,3.0,5.0,90,0.00,,---,0.05,0.00,VWS V14.01,2013-03-07 03:34:00,
2013-03-06 22:35:00,29.8,27.2,30.22,WSW,244,3.0,6.0,90,0.00,,---,0.05,0.00,VWS V14.01,2013-03-07 03:35:00,
2013-03-06 22:36:00,29.9,27.3,30.22,WSW,244,1.0,6.0,90,0.00,,---,0.05,0.00,VWS V14.01,2013-03-07 03:36:00,
2013-03-06 22:37:00,29.9,27.3,30.22,WSW,244,3.0,6.0,90,0.00,,---,0.05,0.00,VWS V14.01,2013-03-07 03:37:00,
2013-03-06 22:38:00,29.8,27.2,30.22,WSW,244,0.0,5.0,90,0.00,,---,0.05,0.00,VWS V14.01,2013-03-07 03:38:00,
2013-03-06 22:39:00,29.8,27.2,30.22,WSW,244,1.0,6.0,90,0.00,,---,0.05,0.00,VWS V14.01,2013-03-07 03:39:00,
2013-03-06 22:40:00,29.9,27.3,30.22,WSW,244,1.0,2.0,90,0.00,,---,0.05,0.00,VWS V14.01,2013-03-07 03:40:00,
2013-03-06 22:41:00,29.8,27.2,30.22,WSW,244,3.0,5.0,90,0.00,,---,0.05,0.00,VWS V14.01,2013-03-07 03:41:00,
2013-03-06 22:42:00,29.8,27.2,30.22,WSW,244,2.0,5.0,90,0.00,,---,0.05,0.00,VWS V14.01,2013-03-07 03:42:00,
2013-03-06 22:43:00,29.8,27.2,30.22,WSW,245,2.0,5.0,90,0.00,,---,0.05,0.00,VWS V14.01,2013-03-07 03:43:00,
2013-03-06 22:44:00,29.8,27.2,30.22,WSW,244,2.0,5.0,90,0.00,,---,0.05,0.00,VWS V14.01,2013-03-07 03:44:00,
2013-03-06 22:45:00,29.8,27.2,30.22,WSW,244,1.0,5.0,90,0.00,,---,0.05,0.00,VWS V14.01,2013-03-07 03:45:00,
2013-03-06 22:46:00,29.8,27.2,30.22,WSW,244,0.0,5.0,90,0.00,,---,0.05,0.00,VWS V14.01,2013-03-07 03:46:00,
2013-03-06 22:47:00,29.8,27.2,30.22,WSW,244,4.0,5.0,90,0.00,,---,0.05,0.00,VWS V14.01,2013-03-07 03:47:00,
2013-03-06 22:48:00,29.8,27.2,30.22,WSW,244,2.0,5.0,90,0.00,,---,0.05,0.00,VWS V14.01,2013-03-07 03:48:00,
2013-03-06 22:49:00,29.9,27.3,30.22,WSW,244,1.0,6.0,90,0.00,,---,0.05,0.00,VWS V14.01,2013-03-07 03:49:00,
2013-03-06 22:50:00,29.8,27.2,30.22,WSW,244,0.0,1.0,90,0.00,,---,0.05,0.00,VWS V14.01,2013-03-07 03:50:00,
2013-03-06 22:51:00,29.8,27.2,30.22,WSW,244,2.0,3.0,90,0.00,,---,0.05,0.00,VWS V14.01,2013-03-07 03:51:00,
2013-03-06 22:52:00,29.8,27.2,30.22,WSW,244,4.0,4.0,90,0.00,,---,0.05,0.00,VWS V14.01,2013-03-07 03:52:00,
2013-03-06 22:53:00,29.8,27.2,30.22,WSW,244,1.0,4.0,90,0.00,,---,0.05,0.00,VWS V14.01,2013-03-07 03:53:00,
2013-03-06 22:54:00,29.8,27.2,30.22,WSW,244,0.0,5.0,90,0.00,,---,0.05,0.00,VWS V14.01,2013-03-07 03:54:00,
2013-03-06 22:55:00,29.8,27.2,30.22,WSW,244,3.0,4.0,90,0.00,,---,0.05,0.00,VWS V14.01,2013-03-07 03:55:00,
2013-03-06 22:56:00,29.8,27.2,30.22,WSW,244,1.0,4.0,90,0.00,,---,0.05,0.00,VWS V14.01,2013-03-07 03:56:00,
2013-03-06 22:57:00,29.8,27.2,30.22,WSW,244,0.0,4.0,90,0.00,,---,0.05,0.00,VWS V14.01,2013-03-07 03:57:00,
2013-03-06 22:58:00,29.8,27.2,30.22,WSW,244,0.0,4.0,90,0.00,,---,0.05,0.00,VWS V14.01,2013-03-07 03:58:00,
2013-03-06 22:59:00,29.8,27.2,30.22,WSW,244,0.0,1.0,90,0.00,,---,0.05,0.00,VWS V14.01,2013-03-07 03:59:00,
2013-03-06 23:00:00,29.8,27.2,30.22,WSW,244,2.0,4.0,90,0.00,,---,0.05,0.00,VWS V14.01,2013-03-07 04:00:00,
2013-03-06 23:01:00,29.8,27.2,30.22,WSW,244,4.0,5.0,90,0.00,,---,0.05,0.00,VWS V14.01,2013-03-07 04:01:00,
2013-03-06 23:02:00,29.8,27.2,30.22,WSW,244,0.0,5.0,90,0.00,,---,0.05,0.00,VWS V14.01,2013-03-07 04:02:00,
2013-03-06 23:03:00,29.8,27.2,30.22,WSW,244,3.0,5.0,90,0.00,,---,0.05,0.00,VWS V14.01,2013-03-07 04:03:00,
2013-03-06 23:04:00,29.8,27.2,30.22,WSW,244,4.0,4.0,90,0.00,,---,0.05,0.00,VWS V14.01,2013-03-07 04:04:00,
2013-03-06 23:05:00,29.8,27.2,30.22,WSW,244,3.0,5.0,90,0.00,,---,0.05,0.00,VWS V14.01,2013-03-07 04:05:00,
2013-03-06 23:06:00,29.8,27.2,30.22,WSW,244,3.0,5.0,90,0.00,,---,0.05,0.00,VWS V14.01,2013-03-07 04:06:00,
2013-03-06 23:07:00,29.8,27.2,30.22,WSW,244,6.0,6.0,90,0.00,,---,0.05,0.00,VWS V14.01,2013-03-07 04:07:00,
2013-03-06 23:08:00,29.8,27.2,30.22,WSW,244,2.0,6.0,90,0.00,,---,0.05,0.00,VWS V14.01,2013-03-07 04:08:00,
2013-03-06 23:09:00,29.8,27.2,30.22,WSW,244,3.0,6.0,90,0.00,,---,0.05,0.00,VWS V14.01,2013-03-07 04:09:00,
2013-03-06 23:10:00,29.8,27.2,30.22,WSW,244,2.0,5.0,90,0.00,,---,0.05,0.00,VWS V14.01,2013-03-07 04:10:00,
2013-03-06 23:11:00,29.8,27.2,30.22,WSW,244,5.0,5.0,90,0.00,,---,0.05,0.00,VWS V14.01,2013-03-07 04:11:00,
2013-03-06 23:12:00,29.8,27.2,30.22,WSW,244,0.0,5.0,90,0.00,,---,0.05,0.00,VWS V14.01,2013-03-07 04:12:00,
2013-03-06 23:13:00,29.8,27.2,30.22,WSW,244,2.0,5.0,90,0.00,,---,0.05,0.00,VWS V14.01,2013-03-07 04:13:00,
2013-03-06 23:14:00,29.8,27.2,30.22,WSW,244,2.0,5.0,90,0.00,,---,0.05,0.00,VWS V14.01,2013-03-07 04:14:00,
2013-03-06 23:15:00,29.8,27.2,30.22,WSW,244,4.0,5.0,90,0.00,,---,0.05,0.00,VWS V14.01,2013-03-07 04:15:00,
2013-03-06 23:16:00,29.8,27.2,30.22,WSW,244,4.0,5.0,90,0.00,,---,0.05,0.00,VWS V14.01,2013-03-07 04:16:00,
2013-03-06 23:17:00,29.8,27.2,30.22,WSW,244,2.0,5.0,90,0.00,,---,0.05,0.00,VWS V14.01,2013-03-07 04:17:00,
2013-03-06 23:18:00,29.8,27.2,30.22,WSW,244,5.0,6.0,90,0.00,,---,0.05,0.00,VWS V14.01,2013-03-07 04:18:00,
2013-03-06 23:19:00,29.8,27.2,30.22,WSW,244,3.0,9.0,90,0.00,,---,0.05,0.00,VWS V14.01,2013-03-07 04:19:00,
2013-03-06 23:20:00,29.8,27.2,30.22,WSW,243,1.0,2.0,90,0.00,,---,0.05,0.00,VWS V14.01,2013-03-07 04:20:00,
2013-03-06 23:21:00,29.8,27.2,30.22,WSW,244,1.0,5.0,90,0.00,,---,0.05,0.00,VWS V14.01,2013-03-07 04:21:00,
2013-03-06 23:22:00,29.8,27.2,30.22,WSW,243,3.0,4.0,90,0.00,,---,0.05,0.00,VWS V14.01,2013-03-07 04:22:00,
2013-03-06 23:23:00,29.8,27.2,30.22,WSW,243,4.0,6.0,90,0.00,,---,0.05,0.00,VWS V14.01,2013-03-07 04:23:00,
2013-03-06 23:24:00,29.8,27.2,30.22,WSW,243,3.0,6.0,90,0.00,,---,0.05,0.00,VWS V14.01,2013-03-07 04:24:00,
2013-03-06 23:25:00,29.8,27.2,30.22,WSW,243,2.0,6.0,90,0.00,,---,0.05,0.00,VWS V14.01,2013-03-07 04:25:00,
2013-03-06 23:26:00,29.8,27.2,30.22,WSW,244,3.0,5.0,90,0.00,,---,0.05,0.00,VWS V14.01,2013-03-07 04:26:00,
2013-03-06 23:27:00,29.8,27.2,30.22,WSW,243,2.0,6.0,90,0.00,,---,0.05,0.00,VWS V14.01,2013-03-07 04:27:00,
2013-03-06 23:28:00,29.8,27.2,30.22,WSW,243,2.0,6.0,90,0.00,,---,0.05,0.00,VWS V14.01,2013-03-07 04:28:00,
2013-03-06 23:29:00,29.8,27.2,30.22,WSW,243,3.0,6.0,90,0.00,,---,0.05,0.00,VWS V14.01,2013-03-07 04:29:00,
2013-03-06 23:30:00,29.8,27.2,30.22,WSW,243,3.0,3.0,90,0.00,,---,0.05,0.00,VWS V14.01,2013-03-07 04:30:00,
2013-03-06 23:31:00,29.8,27.2,30.22,WSW,244,2.0,2.0,90,0.00,,---,0.05,0.00,VWS V14.01,2013-03-07 04:31:00,
2013-03-06 23:32:00,29.8,27.2,30.22,WSW,243,2.0,5.0,90,0.00,,---,0.05,0.00,VWS V14.01,2013-03-07 04:32:00,
2013-03-06 23:33:00,29.8,27.2,30.22,WSW,243,2.0,5.0,90,0.00,,---,0.05,0.00,VWS V14.01,2013-03-07 04:33:00,
2013-03-06 23:34:00,29.8,27.0,30.22,WSW,243,3.0,5.0,89,0.00,,---,0.05,0.00,VWS V14.01,2013-03-07 04:34:00,
2013-03-06 23:35:00,29.8,27.0,30.22,WSW,243,0.0,5.0,89,0.00,,---,0.05,0.00,VWS V14.01,2013-03-07 04:35:00,
2013-03-06 23:36:00,29.8,27.2,30.22,WSW,243,2.0,6.0,90,0.00,,---,0.05,0.00,VWS V14.01,2013-03-07 04:36:00,
2013-03-06 23:37:00,29.8,27.0,30.22,WSW,242,5.0,5.0,89,0.00,,---,0.05,0.00,VWS V14.01,2013-03-07 04:37:00,
2013-03-06 23:38:00,29.8,27.0,30.22,WSW,242,3.0,5.0,89,0.00,,---,0.05,0.00,VWS V14.01,2013-03-07 04:38:00,
2013-03-06 23:39:00,29.8,27.0,30.22,WSW,242,6.0,6.0,89,0.00,,---,0.05,0.00,VWS V14.01,2013-03-07 04:39:00,
2013-03-06 23:40:00,29.8,27.0,30.22,WSW,242,0.0,2.0,89,0.00,,---,0.05,0.00,VWS V14.01,2013-03-07 04:40:00,
2013-03-06 23:41:00,29.8,27.2,30.22,WSW,243,1.0,5.0,90,0.00,,---,0.05,0.00,VWS V14.01,2013-03-07 04:41:00,
2013-03-06 23:42:00,29.8,27.0,30.22,WSW,242,1.0,6.0,89,0.00,,---,0.05,0.00,VWS V14.01,2013-03-07 04:42:00,
2013-03-06 23:43:00,29.8,27.0,30.22,WSW,238,5.0,6.0,89,0.00,,---,0.05,0.00,VWS V14.01,2013-03-07 04:43:00,
2013-03-06 23:44:00,29.8,27.0,30.22,WSW,242,4.0,6.0,89,0.00,,---,0.05,0.00,VWS V14.01,2013-03-07 04:44:00,
2013-03-06 23:45:00,29.8,27.0,30.22,WSW,242,3.0,6.0,89,0.00,,---,0.05,0.00,VWS V14.01,2013-03-07 04:45:00,
2013-03-06 23:46:00,29.8,27.0,30.22,WSW,243,4.0,5.0,89,0.00,,---,0.05,0.00,VWS V14.01,2013-03-07 04:46:00,
2013-03-06 23:47:00,29.8,27.0,30.22,WSW,242,3.0,6.0,89,0.00,,---,0.05,0.00,VWS V14.01,2013-03-07 04:47:00,
2013-03-06 23:48:00,29.9,27.1,30.22,WSW,242,2.0,6.0,89,0.00,,---,0.05,0.00,VWS V14.01,2013-03-07 04:48:00,
2013-03-06 23:49:00,29.8,27.0,30.22,WSW,242,2.0,6.0,89,0.00,,---,0.05,0.00,VWS V14.01,2013-03-07 04:49:00,
2013-03-06 23:50:00,29.8,27.0,30.22,WSW,242,3.0,3.0,89,0.00,,---,0.05,0.00,VWS V14.01,2013-03-07 04:50:00,
2013-03-06 23:51:00,29.8,27.0,30.22,WSW,242,2.0,4.0,89,0.00,,---,0.05,0.00,VWS V14.01,2013-03-07 04:51:00,
2013-03-06 23:52:00,29.8,27.0,30.22,WSW,242,2.0,6.0,89,0.00,,---,0.05,0.00,VWS V14.01,2013-03-07 04:52:00,
2013-03-06 23:53:00,29.8,27.0,30.22,WSW,242,0.0,4.0,89,0.00,,---,0.05,0.00,VWS V14.01,2013-03-07 04:53:00,
2013-03-06 23:54:00,29.8,27.0,30.22,WSW,242,2.0,4.0,89,0.00,,---,0.05,0.00,VWS V14.01,2013-03-07 04:54:00,
2013-03-06 23:55:00,29.8,27.0,30.22,WSW,242,2.0,4.0,89,0.00,,---,0.05,0.00,VWS V14.01,2013-03-07 04:55:00,
2013-03-06 23:56:00,29.8,27.0,30.22,WSW,242,1.0,4.0,89,0.00,,---,0.05,0.00,VWS V14.01,2013-03-07 04:56:00,
2013-03-06 23:57:00,29.8,27.0,30.22,WSW,242,3.0,6.0,89,0.00,,---,0.05,0.00,VWS V14.01,2013-03-07 04:57:00,
2013-03-06 23:58:00,29.8,27.0,30.21,WSW,242,0.0,4.0,89,0.00,,---,0.05,0.00,VWS V14.01,2013-03-07 04:58:00,
2013-03-06 23:59:00,29.8,27.0,30.21,WSW,242,3.0,4.0,89,0.00,,---,0.05,0.00,VWS V14.01,2013-03-07 04:59:00,